Wetterdaten: Freitag, 12.04.2013
Datum Zeit Temp. Aussen +5cm Feuchte Auss Luftdruck Regen Sonnenschein Regendauer UV Solar Windben
12.04.2013 00:00 10,4 C 7,9 C 87 % 998,7 hPa 0,0 l/m 0 min 0 min 0,0 UV-I 0 W/m 0,0 km/h (0 Bft)
12.04.2013 00:02 10,3 C 7,9 C 87 % 998,8 hPa 0,0 l/m 0 min 0 min 0,0 UV-I 0 W/m 0,0 km/h (0 Bft)
12.04.2013 00:06 10,2 C 7,9 C 87 % 998,8 hPa 0,0 l/m 0 min 0 min 0,0 UV-I 0 W/m 2,6 km/h (1 Bft)
12.04.2013 00:08 10,2 C 7,9 C 87 % 998,8 hPa 0,0 l/m 0 min 0 min 0,0 UV-I 0 W/m 0,0 km/h (0 Bft)
12.04.2013 00:10 10,1 C 7,9 C 87 % 998,7 hPa 0,0 l/m 0 min 0 min 0,0 UV-I 0 W/m 0,0 km/h (0 Bft)
12.04.2013 00:12 10,0 C 7,9 C 88 % 998,7 hPa 0,0 l/m 0 min 0 min 0,0 UV-I 0 W/m 0,0 km/h (0 Bft)
12.04.2013 00:14 9,9 C 7,9 C 88 % 998,7 hPa 0,0 l/m 0 min 0 min 0,0 UV-I 0 W/m 0,0 km/h (0 Bft)
12.04.2013 00:16 9,9 C 7,9 C 88 % 998,7 hPa 0,0 l/m 0 min 0 min 0,0 UV-I 0 W/m 5,1 km/h (1 Bft)
12.04.2013 00:18 9,8 C 7,9 C 88 % 998,8 hPa 0,0 l/m 0 min 0 min 0,0 UV-I 0 W/m 0,0 km/h (0 Bft)
12.04.2013 00:20 9,8 C 7,9 C 88 % 998,7 hPa 0,0 l/m 0 min 0 min 0,0 UV-I 0 W/m 0,0 km/h (0 Bft)
12.04.2013 00:22 9,8 C 7,9 C 88 % 998,7 hPa 0,0 l/m 0 min 0 min 0,0 UV-I 0 W/m 5,1 km/h (1 Bft)
12.04.2013 00:24 9,7 C 7,9 C 88 % 998,8 hPa 0,0 l/m 0 min 0 min 0,0 UV-I 0 W/m 0,0 km/h (0 Bft)
12.04.2013 00:26 9,7 C 7,9 C 88 % 998,7 hPa 0,0 l/m 0 min 0 min 0,0 UV-I 0 W/m 5,1 km/h (1 Bft)
12.04.2013 00:28 9,6 C 7,3 C 88 % 998,8 hPa 0,0 l/m 0 min 0 min 0,0 UV-I 0 W/m 0,0 km/h (0 Bft)
12.04.2013 00:30 9,6 C 7,3 C 88 % 998,8 hPa 0,0 l/m 0 min 0 min 0,0 UV-I 0 W/m 2,6 km/h (1 Bft)
12.04.2013 00:32 9,6 C 7,3 C 89 % 998,9 hPa 0,0 l/m 0 min 0 min 0,0 UV-I 0 W/m 5,1 km/h (1 Bft)
12.04.2013 00:34 9,5 C 7,3 C 89 % 998,9 hPa 0,0 l/m 0 min 0 min 0,0 UV-I 0 W/m 0,0 km/h (0 Bft)
12.04.2013 00:36 9,4 C 7,3 C 89 % 998,8 hPa 0,0 l/m 0 min 0 min 0,0 UV-I 0 W/m 0,0 km/h (0 Bft)
12.04.2013 00:38 9,4 C 7,3 C 89 % 998,8 hPa 0,0 l/m 0 min 0 min 0,0 UV-I 0 W/m 0,0 km/h (0 Bft)
12.04.2013 00:40 9,4 C 7,3 C 89 % 998,9 hPa 0,0 l/m 0 min 0 min 0,0 UV-I 0 W/m 0,0 km/h (0 Bft)
12.04.2013 00:42 9,3 C 7,3 C 89 % 998,8 hPa 0,0 l/m 0 min 0 min 0,0 UV-I 0 W/m 0,0 km/h (0 Bft)
12.04.2013 00:44 9,3 C 7,3 C 89 % 998,9 hPa 0,0 l/m 0 min 0 min 0,0 UV-I 0 W/m 0,0 km/h (0 Bft)
12.04.2013 00:46 9,3 C 7,3 C 89 % 998,9 hPa 0,0 l/m 0 min 0 min 0,0 UV-I 0 W/m 0,0 km/h (0 Bft)
12.04.2013 00:48 9,2 C 7,3 C 89 % 998,9 hPa 0,0 l/m 0 min 0 min 0,0 UV-I 0 W/m 0,0 km/h (0 Bft)
12.04.2013 00:50 9,2 C 7,3 C 89 % 998,9 hPa 0,0 l/m 0 min 0 min 0,0 UV-I 0 W/m 0,0 km/h (0 Bft)
12.04.2013 00:52 9,2 C 7,3 C 89 % 998,9 hPa 0,0 l/m 0 min 0 min 0,0 UV-I 0 W/m 0,0 km/h (0 Bft)
12.04.2013 00:54 9,2 C 7,3 C 89 % 998,9 hPa 0,0 l/m 0 min 0 min 0,0 UV-I 0 W/m 0,0 km/h (0 Bft)
12.04.2013 00:56 9,1 C 7,3 C 89 % 998,9 hPa 0,0 l/m 0 min 0 min 0,0 UV-I 0 W/m 0,0 km/h (0 Bft)
12.04.2013 00:58 9,1 C 7,3 C 89 % 999,0 hPa 0,0 l/m 0 min 0 min 0,0 UV-I 0 W/m 0,0 km/h (0 Bft)
12.04.2013 01:00 9,1 C 7,3 C 89 % 999,0 hPa 0,0 l/m 0 min 0 min 0,0 UV-I 0 W/m 0,0 km/h (0 Bft)
12.04.2013 01:02 9,1 C 6,8 C 89 % 998,8 hPa 0,0 l/m 0 min 0 min 0,0 UV-I 0 W/m 0,0 km/h (0 Bft)
12.04.2013 01:04 9,1 C 6,8 C 89 % 998,9 hPa 0,0 l/m 0 min 0 min 0,0 UV-I 0 W/m 0,0 km/h (0 Bft)
12.04.2013 01:06 9,0 C 6,8 C 89 % 998,9 hPa 0,0 l/m 0 min 0 min 0,0 UV-I 0 W/m 0,0 km/h (0 Bft)
12.04.2013 01:08 9,0 C 6,8 C 89 % 999,0 hPa 0,0 l/m 0 min 0 min 0,0 UV-I 0 W/m 0,0 km/h (0 Bft)
12.04.2013 01:10 8,9 C 6,8 C 89 % 998,9 hPa 0,0 l/m 0 min 0 min 0,0 UV-I 0 W/m 0,0 km/h (0 Bft)
12.04.2013 01:12 8,9 C 6,8 C 89 % 998,9 hPa 0,0 l/m 0 min 0 min 0,0 UV-I 0 W/m 0,0 km/h (0 Bft)
12.04.2013 01:14 8,9 C 6,8 C 90 % 998,8 hPa 0,0 l/m 0 min 0 min 0,0 UV-I 0 W/m 0,0 km/h (0 Bft)
12.04.2013 01:16 8,8 C 6,8 C 90 % 998,9 hPa 0,0 l/m 0 min 0 min 0,0 UV-I 0 W/m 0,0 km/h (0 Bft)
12.04.2013 01:18 8,8 C 6,8 C 90 % 998,8 hPa 0,0 l/m 0 min 0 min 0,0 UV-I 0 W/m 0,0 km/h (0 Bft)
12.04.2013 01:20 8,8 C 6,8 C 90 % 998,8 hPa 0,0 l/m 0 min 0 min 0,0 UV-I 0 W/m 0,0 km/h (0 Bft)
12.04.2013 01:22 8,8 C 6,8 C 90 % 998,8 hPa 0,0 l/m 0 min 0 min 0,0 UV-I 0 W/m 0,0 km/h (0 Bft)
12.04.2013 01:24 8,7 C 6,8 C 90 % 999,0 hPa 0,0 l/m 0 min 0 min 0,0 UV-I 0 W/m 0,0 km/h (0 Bft)
12.04.2013 01:26 8,7 C 6,8 C 90 % 998,9 hPa 0,0 l/m 0 min 0 min 0,0 UV-I 0 W/m 0,0 km/h (0 Bft)
12.04.2013 01:28 8,7 C 6,8 C 90 % 999,0 hPa 0,0 l/m 0 min 0 min 0,0 UV-I 0 W/m 0,0 km/h (0 Bft)
12.04.2013 01:30 8,7 C 6,8 C 90 % 998,9 hPa 0,0 l/m 0 min 0 min 0,0 UV-I 0 W/m 0,0 km/h (0 Bft)
12.04.2013 01:32 8,6 C 6,8 C 91 % 999,0 hPa 0,0 l/m 0 min 0 min 0,0 UV-I 0 W/m 2,6 km/h (1 Bft)
12.04.2013 01:34 8,6 C 6,8 C 91 % 999,0 hPa 0,0 l/m 0 min 0 min 0,0 UV-I 0 W/m 0,0 km/h (0 Bft)
12.04.2013 01:36 8,6 C 6,8 C 91 % 999,0 hPa 0,0 l/m 0 min 0 min 0,0 UV-I 0 W/m 0,0 km/h (0 Bft)
12.04.2013 01:38 8,6 C 6,8 C 91 % 999,0 hPa 0,0 l/m 0 min 0 min 0,0 UV-I 0 W/m 5,1 km/h (1 Bft)
12.04.2013 01:40 8,6 C 6,8 C 91 % 998,9 hPa 0,0 l/m 0 min 0 min 0,0 UV-I 0 W/m 0,0 km/h (0 Bft)
12.04.2013 01:42 8,5 C 6,8 C 91 % 998,9 hPa 0,0 l/m 0 min 0 min 0,0 UV-I 0 W/m 0,0 km/h (0 Bft)
12.04.2013 01:44 8,5 C 6,8 C 91 % 998,9 hPa 0,0 l/m 0 min 0 min 0,0 UV-I 0 W/m 0,0 km/h (0 Bft)
12.04.2013 01:46 8,5 C 6,8 C 91 % 999,0 hPa 0,0 l/m 0 min 0 min 0,0 UV-I 0 W/m 0,0 km/h (0 Bft)
12.04.2013 01:48 8,4 C 6,8 C 91 % 999,0 hPa 0,0 l/m 0 min 0 min 0,0 UV-I 0 W/m 5,1 km/h (1 Bft)
12.04.2013 01:50 8,4 C 6,8 C 91 % 999,1 hPa 0,0 l/m 0 min 0 min 0,0 UV-I 0 W/m 0,0 km/h (0 Bft)
12.04.2013 01:52 8,4 C 6,8 C 91 % 999,1 hPa 0,0 l/m 0 min 0 min 0,0 UV-I 0 W/m 0,0 km/h (0 Bft)
12.04.2013 01:54 8,4 C 6,8 C 91 % 999,1 hPa 0,0 l/m 0 min 0 min 0,0 UV-I 0 W/m 0,0 km/h (0 Bft)
12.04.2013 01:56 8,4 C 6,8 C 91 % 999,2 hPa 0,0 l/m 0 min 0 min 0,0 UV-I 0 W/m 0,0 km/h (0 Bft)
12.04.2013 01:58 8,3 C 6,8 C 91 % 999,2 hPa 0,0 l/m 0 min 0 min 0,0 UV-I 0 W/m 0,0 km/h (0 Bft)
12.04.2013 02:00 8,3 C 6,8 C 91 % 999,2 hPa 0,0 l/m 0 min 0 min 0,0 UV-I 0 W/m 2,6 km/h (1 Bft)
12.04.2013 02:02 8,3 C 6,8 C 91 % 999,2 hPa 0,0 l/m 0 min 0 min 0,0 UV-I 0 W/m 0,0 km/h (0 Bft)
12.04.2013 02:04 8,3 C 6,8 C 92 % 999,2 hPa 0,0 l/m 0 min 0 min 0,0 UV-I 0 W/m 0,0 km/h (0 Bft)
12.04.2013 02:06 8,3 C 6,8 C 92 % 999,2 hPa 0,0 l/m 0 min 0 min 0,0 UV-I 0 W/m 0,0 km/h (0 Bft)
12.04.2013 02:08 8,3 C 6,8 C 92 % 999,2 hPa 0,0 l/m 0 min 0 min 0,0 UV-I 0 W/m 0,0 km/h (0 Bft)
12.04.2013 02:10 8,3 C 6,8 C 92 % 999,2 hPa 0,0 l/m 0 min 0 min 0,0 UV-I 0 W/m 0,0 km/h (0 Bft)
12.04.2013 02:12 8,3 C 6,8 C 92 % 999,2 hPa 0,0 l/m 0 min 0 min 0,0 UV-I 0 W/m 0,0 km/h (0 Bft)
12.04.2013 02:14 8,3 C 6,8 C 92 % 999,2 hPa 0,0 l/m 0 min 0 min 0,0 UV-I 0 W/m 0,0 km/h (0 Bft)
12.04.2013 02:16 8,3 C 6,8 C 92 % 999,3 hPa 0,0 l/m 0 min 0 min 0,0 UV-I 0 W/m 0,0 km/h (0 Bft)
12.04.2013 02:18 8,3 C 6,8 C 92 % 999,3 hPa 0,0 l/m 0 min 0 min 0,0 UV-I 0 W/m 0,0 km/h (0 Bft)
12.04.2013 02:20 8,2 C 6,8 C 92 % 999,4 hPa 0,0 l/m 0 min 0 min 0,0 UV-I 0 W/m 5,1 km/h (1 Bft)
12.04.2013 02:22 8,2 C 6,8 C 92 % 999,3 hPa 0,0 l/m 0 min 0 min 0,0 UV-I 0 W/m 0,0 km/h (0 Bft)
12.04.2013 02:24 8,2 C 6,8 C 92 % 999,3 hPa 0,0 l/m 0 min 0 min 0,0 UV-I 0 W/m 0,0 km/h (0 Bft)
12.04.2013 02:26 8,2 C 6,8 C 92 % 999,2 hPa 0,0 l/m 0 min 0 min 0,0 UV-I 0 W/m 0,0 km/h (0 Bft)
12.04.2013 02:28 8,2 C 6,8 C 92 % 999,3 hPa 0,0 l/m 0 min 0 min 0,0 UV-I 0 W/m 0,0 km/h (0 Bft)
12.04.2013 02:30 8,2 C 6,8 C 96 % 999,3 hPa 0,0 l/m 0 min 0 min 0,0 UV-I 0 W/m 5,1 km/h (1 Bft)
12.04.2013 02:32 8,2 C 6,8 C 92 % 999,2 hPa 0,0 l/m 0 min 0 min 0,0 UV-I 0 W/m 5,1 km/h (1 Bft)
12.04.2013 02:34 8,2 C 6,8 C 92 % 999,2 hPa 0,0 l/m 0 min 0 min 0,0 UV-I 0 W/m 0,0 km/h (0 Bft)
12.04.2013 02:36 8,2 C 6,8 C 92 % 999,2 hPa 0,0 l/m 0 min 0 min 0,0 UV-I 0 W/m 2,6 km/h (1 Bft)
12.04.2013 02:38 8,2 C 6,8 C 92 % 999,2 hPa 0,0 l/m 0 min 0 min 0,0 UV-I 0 W/m 0,0 km/h (0 Bft)
12.04.2013 02:40 8,2 C 6,8 C 92 % 999,2 hPa 0,0 l/m 0 min 0 min 0,0 UV-I 0 W/m 5,1 km/h (1 Bft)
12.04.2013 02:42 8,2 C 6,8 C 92 % 999,1 hPa 0,0 l/m 0 min 0 min 0,0 UV-I 0 W/m 0,0 km/h (0 Bft)
12.04.2013 02:44 8,1 C 6,8 C 92 % 999,1 hPa 0,0 l/m 0 min 0 min 0,0 UV-I 0 W/m 0,0 km/h (0 Bft)
12.04.2013 02:46 8,1 C 6,8 C 92 % 999,1 hPa 0,0 l/m 0 min 0 min 0,0 UV-I 0 W/m 2,6 km/h (1 Bft)
12.04.2013 02:48 8,1 C 6,8 C 93 % 999,1 hPa 0,0 l/m 0 min 0 min 0,0 UV-I 0 W/m 5,1 km/h (1 Bft)
12.04.2013 02:50 8,1 C 6,8 C 93 % 999,2 hPa 0,0 l/m 0 min 0 min 0,0 UV-I 0 W/m 7,7 km/h (2 Bft)
12.04.2013 02:52 8,1 C 6,8 C 93 % 999,2 hPa 0,0 l/m 0 min 0 min 0,0 UV-I 0 W/m 2,6 km/h (1 Bft)
12.04.2013 02:54 8,1 C 6,8 C 93 % 999,2 hPa 0,0 l/m 0 min 0 min 0,0 UV-I 0 W/m 5,1 km/h (1 Bft)
12.04.2013 02:56 8,1 C 6,8 C 93 % 999,2 hPa 0,0 l/m 0 min 0 min 0,0 UV-I 0 W/m 0,0 km/h (0 Bft)
12.04.2013 02:58 8,1 C 6,8 C 93 % 999,3 hPa 0,0 l/m 0 min 0 min 0,0 UV-I 0 W/m 7,7 km/h (2 Bft)
12.04.2013 03:00 8,0 C 6,8 C 93 % 999,3 hPa 0,0 l/m 0 min 0 min 0,0 UV-I 0 W/m 5,1 km/h (1 Bft)
12.04.2013 03:02 8,0 C 6,8 C 93 % 999,3 hPa 0,0 l/m 0 min 0 min 0,0 UV-I 0 W/m 7,7 km/h (2 Bft)
12.04.2013 03:05 7,9 C 6,8 C 93 % 999,3 hPa 0,0 l/m 0 min 0 min 0,0 UV-I 0 W/m 7,7 km/h (2 Bft)
12.04.2013 03:08 7,9 C 6,8 C 93 % 999,3 hPa 0,0 l/m 0 min 0 min 0,0 UV-I 0 W/m 0,0 km/h (0 Bft)
12.04.2013 03:10 7,9 C 6,8 C 93 % 999,3 hPa 0,0 l/m 0 min 0 min 0,0 UV-I 0 W/m 2,6 km/h (1 Bft)
12.04.2013 03:12 7,9 C 6,8 C 93 % 999,3 hPa 0,0 l/m 0 min 0 min 0,0 UV-I 0 W/m 7,7 km/h (2 Bft)
12.04.2013 03:14 7,9 C 6,8 C 93 % 999,3 hPa 0,0 l/m 0 min 0 min 0,0 UV-I 0 W/m 0,0 km/h (0 Bft)
12.04.2013 03:16 7,9 C 6,8 C 93 % 999,2 hPa 0,0 l/m 0 min 0 min 0,0 UV-I 0 W/m 0,0 km/h (0 Bft)
12.04.2013 03:18 7,9 C 6,2 C 93 % 999,2 hPa 0,0 l/m 0 min 0 min 0,0 UV-I 0 W/m 0,0 km/h (0 Bft)
12.04.2013 03:20 7,9 C 6,2 C 93 % 999,2 hPa 0,0 l/m 0 min 0 min 0,0 UV-I 0 W/m 2,6 km/h (1 Bft)
12.04.2013 03:22 7,9 C 6,2 C 93 % 999,2 hPa 0,0 l/m 0 min 0 min 0,0 UV-I 0 W/m 0,0 km/h (0 Bft)
12.04.2013 03:24 7,8 C 6,2 C 93 % 999,3 hPa 0,0 l/m 0 min 0 min 0,0 UV-I 0 W/m 0,0 km/h (0 Bft)
12.04.2013 03:26 7,8 C 6,2 C 93 % 999,3 hPa 0,0 l/m 0 min 0 min 0,0 UV-I 0 W/m 0,0 km/h (0 Bft)
12.04.2013 03:28 7,8 C 6,2 C 93 % 999,3 hPa 0,0 l/m 0 min 0 min 0,0 UV-I 0 W/m 0,0 km/h (0 Bft)
12.04.2013 03:30 7,8 C 6,2 C 93 % 999,3 hPa 0,0 l/m 0 min 0 min 0,0 UV-I 0 W/m 0,0 km/h (0 Bft)
12.04.2013 03:32 7,8 C 6,2 C 93 % 999,2 hPa 0,0 l/m 0 min 0 min 0,0 UV-I 0 W/m 0,0 km/h (0 Bft)
12.04.2013 03:34 7,8 C 6,2 C 93 % 999,3 hPa 0,0 l/m 0 min 0 min 0,0 UV-I 0 W/m 5,1 km/h (1 Bft)
12.04.2013 03:36 7,8 C 6,2 C 93 % 999,3 hPa 0,0 l/m 0 min 0 min 0,0 UV-I 0 W/m 0,0 km/h (0 Bft)
12.04.2013 03:38 7,8 C 6,2 C 93 % 999,3 hPa 0,0 l/m 0 min 0 min 0,0 UV-I 0 W/m 0,0 km/h (0 Bft)
12.04.2013 03:40 7,7 C 6,2 C 93 % 999,4 hPa 0,0 l/m 0 min 0 min 0,0 UV-I 0 W/m 0,0 km/h (0 Bft)
12.04.2013 03:42 7,7 C 6,2 C 93 % 999,3 hPa 0,0 l/m 0 min 0 min 0,0 UV-I 0 W/m 0,0 km/h (0 Bft)
12.04.2013 03:44 7,7 C 6,2 C 93 % 999,4 hPa 0,0 l/m 0 min 0 min 0,0 UV-I 0 W/m 0,0 km/h (0 Bft)
12.04.2013 03:46 7,7 C 6,2 C 93 % 999,4 hPa 0,0 l/m 0 min 0 min 0,0 UV-I 0 W/m 0,0 km/h (0 Bft)
12.04.2013 03:48 7,7 C 6,2 C 93 % 999,3 hPa 0,0 l/m 0 min 0 min 0,0 UV-I 0 W/m 0,0 km/h (0 Bft)
12.04.2013 03:50 7,7 C 6,2 C 93 % 999,3 hPa 0,0 l/m 0 min 0 min 0,0 UV-I 0 W/m 0,0 km/h (0 Bft)
12.04.2013 03:52 7,7 C 6,2 C 93 % 999,3 hPa 0,0 l/m 0 min 0 min 0,0 UV-I 0 W/m 0,0 km/h (0 Bft)
12.04.2013 03:54 7,7 C 6,2 C 93 % 999,5 hPa 0,0 l/m 0 min 0 min 0,0 UV-I 0 W/m 0,0 km/h (0 Bft)
12.04.2013 03:56 7,7 C 6,2 C 93 % 999,5 hPa 0,0 l/m 0 min 0 min 0,0 UV-I 0 W/m 0,0 km/h (0 Bft)
12.04.2013 03:58 7,7 C 6,2 C 93 % 999,6 hPa 0,0 l/m 0 min 0 min 0,0 UV-I 0 W/m 0,0 km/h (0 Bft)
12.04.2013 04:00 7,7 C 6,2 C 93 % 999,6 hPa 0,0 l/m 0 min 0 min 0,0 UV-I 0 W/m 0,0 km/h (0 Bft)
12.04.2013 04:05 7,7 C 6,2 C 94 % 999,8 hPa 0,0 l/m 0 min 0 min 0,0 UV-I 0 W/m 0,0 km/h (0 Bft)
12.04.2013 04:06 7,7 C 6,2 C 94 % 999,8 hPa 0,0 l/m 0 min 0 min 0,0 UV-I 0 W/m 0,0 km/h (0 Bft)
12.04.2013 04:08 7,6 C 6,2 C 94 % 999,8 hPa 0,0 l/m 0 min 0 min 0,0 UV-I 0 W/m 0,0 km/h (0 Bft)
12.04.2013 04:10 7,6 C 6,2 C 94 % 999,8 hPa 0,0 l/m 0 min 0 min 0,0 UV-I 0 W/m 0,0 km/h (0 Bft)
12.04.2013 04:12 7,6 C 6,2 C 94 % 999,9 hPa 0,0 l/m 0 min 0 min 0,0 UV-I 0 W/m 10,3 km/h (2 Bft)
12.04.2013 04:14 7,6 C 6,2 C 94 % 999,8 hPa 0,0 l/m 0 min 0 min 0,0 UV-I 0 W/m 7,7 km/h (2 Bft)
12.04.2013 04:16 7,6 C 6,2 C 94 % 999,9 hPa 0,0 l/m 0 min 0 min 0,0 UV-I 0 W/m 5,1 km/h (1 Bft)
12.04.2013 04:18 7,6 C 6,2 C 94 % 999,9 hPa 0,0 l/m 0 min 0 min 0,0 UV-I 0 W/m 2,6 km/h (1 Bft)
12.04.2013 04:20 7,6 C 6,2 C 94 % 999,9 hPa 0,0 l/m 0 min 0 min 0,0 UV-I 0 W/m 0,0 km/h (0 Bft)
12.04.2013 04:22 7,6 C 6,2 C 94 % 999,9 hPa 0,0 l/m 0 min 0 min 0,0 UV-I 0 W/m 2,6 km/h (1 Bft)
12.04.2013 04:24 7,6 C 6,2 C 94 % 999,9 hPa 0,0 l/m 0 min 0 min 0,0 UV-I 0 W/m 0,0 km/h (0 Bft)
12.04.2013 04:26 7,6 C 6,2 C 94 % 999,9 hPa 0,0 l/m 0 min 0 min 0,0 UV-I 0 W/m 0,0 km/h (0 Bft)
12.04.2013 04:28 7,6 C 6,2 C 94 % 1000,0 hPa 0,0 l/m 0 min 0 min 0,0 UV-I 0 W/m 0,0 km/h (0 Bft)
12.04.2013 04:30 7,6 C 6,2 C 94 % 1000,0 hPa 0,0 l/m 0 min 0 min 0,0 UV-I 0 W/m 0,0 km/h (0 Bft)
12.04.2013 04:32 7,6 C 6,2 C 94 % 1000,0 hPa 0,0 l/m 0 min 0 min 0,0 UV-I 0 W/m 0,0 km/h (0 Bft)
12.04.2013 04:34 7,6 C 6,2 C 94 % 1000,0 hPa 0,0 l/m 0 min 0 min 0,0 UV-I 0 W/m 0,0 km/h (0 Bft)
12.04.2013 04:36 7,6 C 6,2 C 94 % 1000,0 hPa 0,0 l/m 0 min 0 min 0,0 UV-I 0 W/m 0,0 km/h (0 Bft)
12.04.2013 04:38 7,6 C 6,2 C 94 % 1000,0 hPa 0,0 l/m 0 min 0 min 0,0 UV-I 0 W/m 7,7 km/h (2 Bft)
12.04.2013 04:40 7,6 C 6,2 C 94 % 1000,1 hPa 0,0 l/m 0 min 0 min 0,0 UV-I 0 W/m 10,3 km/h (2 Bft)
12.04.2013 04:42 7,6 C 6,2 C 94 % 1000,0 hPa 0,0 l/m 0 min 0 min 0,0 UV-I 0 W/m 0,0 km/h (0 Bft)
12.04.2013 04:44 7,6 C 6,2 C 94 % 1000,1 hPa 0,0 l/m 0 min 0 min 0,0 UV-I 0 W/m 0,0 km/h (0 Bft)
12.04.2013 04:46 7,5 C 6,2 C 94 % 1000,1 hPa 0,0 l/m 0 min 0 min 0,0 UV-I 0 W/m 2,6 km/h (1 Bft)
12.04.2013 04:48 7,5 C 6,2 C 94 % 1000,1 hPa 0,0 l/m 0 min 0 min 0,0 UV-I 0 W/m 5,1 km/h (1 Bft)
12.04.2013 04:50 7,5 C 6,2 C 94 % 1000,2 hPa 0,0 l/m 0 min 0 min 0,0 UV-I 0 W/m 0,0 km/h (0 Bft)
12.04.2013 04:52 7,5 C 6,2 C 94 % 1000,2 hPa 0,0 l/m 0 min 0 min 0,0 UV-I 0 W/m 5,1 km/h (1 Bft)
12.04.2013 04:54 7,5 C 6,2 C 94 % 1000,1 hPa 0,0 l/m 0 min 0 min 0,0 UV-I 0 W/m 2,6 km/h (1 Bft)
12.04.2013 04:56 7,5 C 6,2 C 94 % 1000,3 hPa 0,0 l/m 0 min 0 min 0,0 UV-I 0 W/m 0,0 km/h (0 Bft)
12.04.2013 04:58 7,5 C 6,2 C 94 % 1000,2 hPa 0,0 l/m 0 min 0 min 0,0 UV-I 0 W/m 7,7 km/h (2 Bft)
12.04.2013 05:00 7,5 C 6,2 C 94 % 1000,3 hPa 0,0 l/m 0 min 0 min 0,0 UV-I 0 W/m 5,1 km/h (1 Bft)
12.04.2013 05:02 7,5 C 6,2 C 94 % 1000,3 hPa 0,0 l/m 0 min 0 min 0,0 UV-I 0 W/m 0,0 km/h (0 Bft)
12.04.2013 05:04 7,5 C 6,2 C 94 % 1000,3 hPa 0,0 l/m 0 min 0 min 0,0 UV-I 0 W/m 0,0 km/h (0 Bft)
12.04.2013 05:06 7,5 C 6,2 C 94 % 1000,3 hPa 0,0 l/m 0 min 0 min 0,0 UV-I 0 W/m 5,1 km/h (1 Bft)
12.04.2013 05:08 7,5 C 6,2 C 94 % 1000,2 hPa 0,0 l/m 0 min 0 min 0,0 UV-I 0 W/m 0,0 km/h (0 Bft)
12.04.2013 05:10 7,5 C 6,2 C 94 % 1000,3 hPa 0,0 l/m 0 min 0 min 0,0 UV-I 0 W/m 0,0 km/h (0 Bft)
12.04.2013 05:12 7,5 C 6,2 C 94 % 1000,2 hPa 0,0 l/m 0 min 0 min 0,0 UV-I 0 W/m 0,0 km/h (0 Bft)
12.04.2013 05:14 7,5 C 6,2 C 94 % 1000,2 hPa 0,0 l/m 0 min 0 min 0,0 UV-I 0 W/m 0,0 km/h (0 Bft)
12.04.2013 05:16 7,5 C 6,2 C 94 % 1000,2 hPa 0,0 l/m 0 min 0 min 0,0 UV-I 0 W/m 0,0 km/h (0 Bft)
12.04.2013 05:18 7,5 C 6,2 C 94 % 1000,2 hPa 0,0 l/m 0 min 0 min 0,0 UV-I 0 W/m 2,6 km/h (1 Bft)
12.04.2013 05:20 7,5 C 6,2 C 94 % 1000,2 hPa 0,0 l/m 0 min 0 min 0,0 UV-I 0 W/m 0,0 km/h (0 Bft)
12.04.2013 05:22 7,5 C 6,2 C 94 % 1000,2 hPa 0,0 l/m 0 min 0 min 0,0 UV-I 0 W/m 0,0 km/h (0 Bft)
12.04.2013 05:24 7,5 C 6,2 C 94 % 1000,3 hPa 0,0 l/m 0 min 0 min 0,0 UV-I 0 W/m 0,0 km/h (0 Bft)
12.04.2013 05:26 7,5 C 6,2 C 94 % 1000,3 hPa 0,0 l/m 0 min 0 min 0,0 UV-I 0 W/m 2,6 km/h (1 Bft)
12.04.2013 05:28 7,4 C 6,2 C 94 % 1000,4 hPa 0,0 l/m 0 min 0 min 0,0 UV-I 0 W/m 0,0 km/h (0 Bft)
12.04.2013 05:30 7,4 C 6,2 C 94 % 1000,3 hPa 0,0 l/m 0 min 0 min 0,0 UV-I 0 W/m 0,0 km/h (0 Bft)
12.04.2013 05:32 7,5 C 6,2 C 94 % 1000,3 hPa 0,0 l/m 0 min 0 min 0,0 UV-I 0 W/m 0,0 km/h (0 Bft)
12.04.2013 05:34 7,5 C 6,2 C 94 % 1000,3 hPa 0,0 l/m 0 min 0 min 0,0 UV-I 0 W/m 0,0 km/h (0 Bft)
12.04.2013 05:36 7,4 C 6,2 C 94 % 1000,4 hPa 0,0 l/m 0 min 0 min 0,0 UV-I 0 W/m 0,0 km/h (0 Bft)
12.04.2013 05:38 7,4 C 6,2 C 94 % 1000,4 hPa 0,0 l/m 0 min 0 min 0,0 UV-I 0 W/m 2,6 km/h (1 Bft)
12.04.2013 05:40 7,5 C 6,2 C 94 % 1000,5 hPa 0,0 l/m 0 min 0 min 0,0 UV-I 0 W/m 7,7 km/h (2 Bft)
12.04.2013 05:42 7,4 C 6,2 C 94 % 1000,4 hPa 0,0 l/m 0 min 0 min 0,0 UV-I 0 W/m 2,6 km/h (1 Bft)
12.04.2013 05:44 7,4 C 6,2 C 94 % 1000,4 hPa 0,0 l/m 0 min 0 min 0,0 UV-I 0 W/m 0,0 km/h (0 Bft)
12.04.2013 05:46 7,4 C 6,2 C 94 % 1000,3 hPa 0,0 l/m 0 min 0 min 0,0 UV-I 0 W/m 0,0 km/h (0 Bft)
12.04.2013 05:48 7,4 C 6,2 C 94 % 1000,4 hPa 0,0 l/m 0 min 0 min 0,0 UV-I 0 W/m 0,0 km/h (0 Bft)
12.04.2013 05:50 7,4 C 6,2 C 94 % 1000,3 hPa 0,0 l/m 0 min 0 min 0,0 UV-I 0 W/m 0,0 km/h (0 Bft)
12.04.2013 05:52 7,4 C 6,2 C 94 % 1000,4 hPa 0,0 l/m 0 min 0 min 0,0 UV-I 0 W/m 2,6 km/h (1 Bft)
12.04.2013 05:54 7,4 C 6,2 C 94 % 1000,4 hPa 0,0 l/m 0 min 0 min 0,0 UV-I 0 W/m 0,0 km/h (0 Bft)
12.04.2013 05:56 7,4 C 6,2 C 94 % 1000,5 hPa 0,0 l/m 0 min 0 min 0,0 UV-I 0 W/m 2,6 km/h (1 Bft)
12.04.2013 05:58 7,4 C 6,2 C 94 % 1000,5 hPa 0,0 l/m 0 min 0 min 0,0 UV-I 0 W/m 5,1 km/h (1 Bft)
12.04.2013 06:00 7,4 C 6,2 C 94 % 1000,4 hPa 0,0 l/m 0 min 0 min 0,0 UV-I 0 W/m 2,6 km/h (1 Bft)
12.04.2013 06:02 7,4 C 6,2 C 94 % 1000,4 hPa 0,0 l/m 0 min 0 min 0,0 UV-I 0 W/m 0,0 km/h (0 Bft)
12.04.2013 06:06 7,4 C 6,2 C 94 % 1000,4 hPa 0,0 l/m 0 min 0 min 0,0 UV-I 0 W/m 5,1 km/h (1 Bft)
12.04.2013 06:08 7,4 C 6,2 C 94 % 1000,4 hPa 0,0 l/m 0 min 0 min 0,0 UV-I 0 W/m 0,0 km/h (0 Bft)
12.04.2013 06:10 7,4 C 6,2 C 94 % 1000,5 hPa 0,0 l/m 0 min 0 min 0,0 UV-I 0 W/m 0,0 km/h (0 Bft)
12.04.2013 06:12 7,4 C 6,2 C 94 % 1000,4 hPa 0,0 l/m 0 min 0 min 0,0 UV-I 0 W/m 2,6 km/h (1 Bft)
12.04.2013 06:14 7,4 C 6,2 C 94 % 1000,5 hPa 0,0 l/m 0 min 0 min 0,0 UV-I 0 W/m 0,0 km/h (0 Bft)
12.04.2013 06:16 7,4 C 6,2 C 94 % 1000,4 hPa 0,0 l/m 0 min 0 min 0,0 UV-I 0 W/m 0,0 km/h (0 Bft)
12.04.2013 06:18 7,4 C 6,2 C 94 % 1000,4 hPa 0,0 l/m 0 min 0 min 0,0 UV-I 0 W/m 0,0 km/h (0 Bft)
12.04.2013 06:20 7,4 C 6,2 C 94 % 1000,4 hPa 0,0 l/m 0 min 0 min 0,0 UV-I 0 W/m 0,0 km/h (0 Bft)
12.04.2013 06:22 7,4 C 6,2 C 94 % 1000,4 hPa 0,0 l/m 0 min 0 min 0,0 UV-I 0 W/m 0,0 km/h (0 Bft)
12.04.2013 06:24 7,4 C 6,2 C 94 % 1000,4 hPa 0,0 l/m 0 min 0 min 0,0 UV-I 0 W/m 0,0 km/h (0 Bft)
12.04.2013 06:26 7,4 C 6,2 C 94 % 1000,4 hPa 0,0 l/m 0 min 0 min 0,0 UV-I 0 W/m 0,0 km/h (0 Bft)
12.04.2013 06:28 7,4 C 6,2 C 94 % 1000,4 hPa 0,0 l/m 0 min 0 min 0,0 UV-I 0 W/m 0,0 km/h (0 Bft)
12.04.2013 06:30 7,4 C 6,2 C 94 % 1000,4 hPa 0,0 l/m 0 min 0 min 0,0 UV-I 0 W/m 0,0 km/h (0 Bft)
12.04.2013 06:32 7,4 C 6,2 C 94 % 1000,4 hPa 0,0 l/m 0 min 0 min 0,0 UV-I 0 W/m 0,0 km/h (0 Bft)
12.04.2013 06:34 7,4 C 6,2 C 94 % 1000,4 hPa 0,0 l/m 0 min 0 min 0,0 UV-I 0 W/m 0,0 km/h (0 Bft)
12.04.2013 06:36 7,4 C 6,2 C 94 % 1000,4 hPa 0,0 l/m 0 min 0 min 0,0 UV-I 0 W/m 0,0 km/h (0 Bft)
12.04.2013 06:38 7,4 C 6,2 C 94 % 1000,4 hPa 0,0 l/m 0 min 0 min 0,0 UV-I 0 W/m 0,0 km/h (0 Bft)
12.04.2013 06:40 7,4 C 6,2 C 94 % 1000,4 hPa 0,0 l/m 0 min 0 min 0,0 UV-I 0 W/m 0,0 km/h (0 Bft)
12.04.2013 06:42 7,4 C 6,2 C 94 % 1000,5 hPa 0,0 l/m 0 min 0 min 0,0 UV-I 0 W/m 0,0 km/h (0 Bft)
12.04.2013 06:44 7,4 C 6,2 C 94 % 1000,4 hPa 0,0 l/m 0 min 0 min 0,0 UV-I 0 W/m 0,0 km/h (0 Bft)
12.04.2013 06:46 7,4 C 6,2 C 94 % 1000,5 hPa 0,0 l/m 0 min 0 min 0,0 UV-I 0 W/m 0,0 km/h (0 Bft)
12.04.2013 06:48 7,4 C 6,2 C 94 % 1000,5 hPa 0,0 l/m 0 min 0 min 0,0 UV-I 0 W/m 0,0 km/h (0 Bft)
12.04.2013 06:50 7,4 C 6,2 C 94 % 1000,5 hPa 0,0 l/m 0 min 0 min 0,0 UV-I 0 W/m 0,0 km/h (0 Bft)
12.04.2013 06:52 7,4 C 6,2 C 94 % 1000,5 hPa 0,0 l/m 0 min 0 min 0,0 UV-I 0 W/m 0,0 km/h (0 Bft)
12.04.2013 06:54 7,4 C 6,2 C 94 % 1000,5 hPa 0,0 l/m 0 min 0 min 0,0 UV-I 0 W/m 0,0 km/h (0 Bft)
12.04.2013 06:56 7,4 C 6,2 C 94 % 1000,5 hPa 0,0 l/m 0 min 0 min 0,0 UV-I 0 W/m 0,0 km/h (0 Bft)
12.04.2013 06:58 7,4 C 6,2 C 94 % 1000,5 hPa 0,0 l/m 0 min 0 min 0,0 UV-I 0 W/m 0,0 km/h (0 Bft)
12.04.2013 07:00 7,4 C 6,2 C 94 % 1000,6 hPa 0,0 l/m 0 min 0 min 0,0 UV-I 0 W/m 0,0 km/h (0 Bft)
12.04.2013 07:02 7,4 C 6,2 C 94 % 1000,6 hPa 0,0 l/m 0 min 0 min 0,0 UV-I 0 W/m 0,0 km/h (0 Bft)
12.04.2013 07:04 7,4 C 6,2 C 94 % 1000,6 hPa 0,0 l/m 0 min 0 min 0,0 UV-I 0 W/m 0,0 km/h (0 Bft)
12.04.2013 07:06 7,4 C 6,2 C 94 % 1000,6 hPa 0,0 l/m 0 min 0 min 0,0 UV-I 0 W/m 0,0 km/h (0 Bft)
12.04.2013 07:08 7,4 C 6,2 C 94 % 1000,6 hPa 0,0 l/m 0 min 0 min 0,0 UV-I 5 W/m 0,0 km/h (0 Bft)
12.04.2013 07:10 7,4 C 6,2 C 94 % 1000,6 hPa 0,0 l/m 0 min 0 min 0,0 UV-I 5 W/m 0,0 km/h (0 Bft)
12.04.2013 07:12 7,4 C 6,2 C 94 % 1000,6 hPa 0,0 l/m 0 min 0 min 0,0 UV-I 7 W/m 0,0 km/h (0 Bft)
12.04.2013 07:14 7,4 C 6,2 C 94 % 1000,6 hPa 0,0 l/m 0 min 0 min 0,0 UV-I 7 W/m 0,0 km/h (0 Bft)
12.04.2013 07:16 7,4 C 6,2 C 94 % 1000,6 hPa 0,0 l/m 0 min 0 min 0,0 UV-I 5 W/m 0,0 km/h (0 Bft)
12.04.2013 07:18 7,4 C 6,2 C 94 % 1000,6 hPa 0,0 l/m 0 min 0 min 0,0 UV-I 7 W/m 0,0 km/h (0 Bft)
12.04.2013 07:20 7,4 C 6,2 C 94 % 1000,6 hPa 0,0 l/m 0 min 0 min 0,0 UV-I 9 W/m 0,0 km/h (0 Bft)
12.04.2013 07:22 7,4 C 6,8 C 94 % 1000,6 hPa 0,0 l/m 0 min 0 min 0,0 UV-I 9 W/m 0,0 km/h (0 Bft)
12.04.2013 07:24 7,4 C 6,8 C 94 % 1000,6 hPa 0,0 l/m 0 min 0 min 0,0 UV-I 9 W/m 0,0 km/h (0 Bft)
12.04.2013 07:26 7,4 C 6,8 C 95 % 1000,6 hPa 0,0 l/m 0 min 0 min 0,0 UV-I 9 W/m 0,0 km/h (0 Bft)
12.04.2013 07:28 7,4 C 6,8 C 95 % 1000,7 hPa 0,0 l/m 0 min 0 min 0,0 UV-I 9 W/m 0,0 km/h (0 Bft)
12.04.2013 07:30 7,4 C 6,8 C 95 % 1000,7 hPa 0,0 l/m 0 min 0 min 0,0 UV-I 12 W/m 5,1 km/h (1 Bft)
12.04.2013 07:32 7,5 C 6,8 C 95 % 1000,8 hPa 0,0 l/m 0 min 0 min 0,0 UV-I 18 W/m 0,0 km/h (0 Bft)
12.04.2013 07:34 7,5 C 6,8 C 95 % 1000,7 hPa 0,0 l/m 0 min 0 min 0,0 UV-I 18 W/m 0,0 km/h (0 Bft)
12.04.2013 07:36 7,6 C 6,8 C 95 % 1000,7 hPa 0,0 l/m 0 min 0 min 0,0 UV-I 16 W/m 0,0 km/h (0 Bft)
12.04.2013 07:38 7,6 C 6,8 C 95 % 1000,7 hPa 0,0 l/m 0 min 0 min 0,0 UV-I 16 W/m 0,0 km/h (0 Bft)
12.04.2013 07:40 7,6 C 6,8 C 95 % 1000,8 hPa 0,0 l/m 0 min 0 min 0,0 UV-I 16 W/m 2,6 km/h (1 Bft)
12.04.2013 07:42 7,6 C 6,8 C 95 % 1000,9 hPa 0,0 l/m 0 min 0 min 0,0 UV-I 16 W/m 0,0 km/h (0 Bft)
12.04.2013 07:44 7,7 C 6,8 C 95 % 1000,9 hPa 0,0 l/m 0 min 0 min 0,0 UV-I 16 W/m 0,0 km/h (0 Bft)
12.04.2013 07:46 7,7 C 6,8 C 95 % 1000,9 hPa 0,0 l/m 0 min 0 min 0,0 UV-I 18 W/m 5,1 km/h (1 Bft)
12.04.2013 07:48 7,7 C 6,8 C 95 % 1000,8 hPa 0,0 l/m 0 min 0 min 0,0 UV-I 18 W/m 2,6 km/h (1 Bft)
12.04.2013 07:50 7,8 C 6,8 C 95 % 1000,8 hPa 0,0 l/m 0 min 0 min 0,0 UV-I 18 W/m 10,3 km/h (2 Bft)
12.04.2013 07:52 7,8 C 6,8 C 96 % 1000,8 hPa 0,0 l/m 0 min 0 min 0,0 UV-I 18 W/m 10,3 km/h (2 Bft)
12.04.2013 07:54 7,8 C 6,8 C 96 % 1000,8 hPa 0,0 l/m 0 min 2 min 0,0 UV-I 16 W/m 2,6 km/h (1 Bft)
12.04.2013 07:56 7,8 C 6,8 C 96 % 1000,8 hPa 0,0 l/m 0 min 2 min 0,0 UV-I 18 W/m 0,0 km/h (0 Bft)
12.04.2013 07:58 7,9 C 6,8 C 96 % 1000,8 hPa 0,0 l/m 0 min 2 min 0,0 UV-I 18 W/m 7,7 km/h (2 Bft)
12.04.2013 08:00 7,9 C 6,8 C 96 % 1000,9 hPa 0,0 l/m 0 min 2 min 0,0 UV-I 19 W/m 7,7 km/h (2 Bft)
12.04.2013 08:02 7,9 C 6,8 C 96 % 1000,9 hPa 0,0 l/m 0 min 2 min 0,0 UV-I 25 W/m 5,1 km/h (1 Bft)
12.04.2013 08:04 8,0 C 6,8 C 96 % 1000,9 hPa 0,0 l/m 0 min 2 min 0,0 UV-I 26 W/m 2,6 km/h (1 Bft)
12.04.2013 08:06 8,0 C 6,8 C 96 % 1000,9 hPa 0,2 l/m 0 min 2 min 0,0 UV-I 28 W/m 5,1 km/h (1 Bft)
12.04.2013 08:08 8,1 C 6,8 C 96 % 1000,8 hPa 0,0 l/m 0 min 2 min 0,0 UV-I 30 W/m 10,3 km/h (2 Bft)
12.04.2013 08:10 8,1 C 6,8 C 96 % 1000,9 hPa 0,0 l/m 0 min 0 min 0,0 UV-I 30 W/m 5,1 km/h (1 Bft)
12.04.2013 08:12 8,1 C 6,8 C 96 % 1000,9 hPa 0,0 l/m 0 min 0 min 0,0 UV-I 28 W/m 0,0 km/h (0 Bft)
12.04.2013 08:14 8,1 C 6,8 C 96 % 1000,9 hPa 0,0 l/m 0 min 0 min 0,0 UV-I 26 W/m 0,0 km/h (0 Bft)
12.04.2013 08:16 8,2 C 6,8 C 96 % 1000,9 hPa 0,0 l/m 0 min 0 min 0,0 UV-I 26 W/m 5,1 km/h (1 Bft)
12.04.2013 08:18 8,2 C 6,8 C 96 % 1000,9 hPa 0,0 l/m 0 min 0 min 0,0 UV-I 26 W/m 2,6 km/h (1 Bft)
12.04.2013 08:20 8,2 C 6,8 C 96 % 1000,8 hPa 0,0 l/m 0 min 0 min 0,0 UV-I 30 W/m 12,9 km/h (3 Bft)
12.04.2013 08:22 8,2 C 6,8 C 96 % 1000,8 hPa 0,0 l/m 0 min 2 min 0,0 UV-I 33 W/m 7,7 km/h (2 Bft)
12.04.2013 08:24 8,2 C 6,8 C 96 % 1000,8 hPa 0,0 l/m 0 min 2 min 0,0 UV-I 39 W/m 5,1 km/h (1 Bft)
12.04.2013 08:26 8,3 C 6,8 C 96 % 1000,8 hPa 0,0 l/m 0 min 0 min 0,0 UV-I 40 W/m 7,7 km/h (2 Bft)
12.04.2013 08:28 8,3 C 6,8 C 96 % 1000,8 hPa 0,0 l/m 0 min 0 min 0,0 UV-I 42 W/m 20,6 km/h (4 Bft)
12.04.2013 08:30 8,3 C 6,8 C 96 % 1000,9 hPa 0,0 l/m 0 min 0 min 0,0 UV-I 40 W/m 10,3 km/h (2 Bft)
12.04.2013 08:32 8,3 C 6,8 C 96 % 1000,9 hPa 0,0 l/m 0 min 0 min 0,0 UV-I 35 W/m 7,7 km/h (2 Bft)
12.04.2013 08:34 8,3 C 6,8 C 96 % 1000,9 hPa 0,0 l/m 0 min 0 min 0,0 UV-I 32 W/m 7,7 km/h (2 Bft)
12.04.2013 08:36 8,4 C 6,8 C 96 % 1000,9 hPa 0,0 l/m 0 min 0 min 0,0 UV-I 37 W/m 23,2 km/h (4 Bft)
12.04.2013 08:38 8,4 C 6,8 C 96 % 1000,9 hPa 0,0 l/m 0 min 0 min 0,0 UV-I 49 W/m 12,9 km/h (3 Bft)
12.04.2013 08:40 8,4 C 6,8 C 96 % 1000,9 hPa 0,0 l/m 0 min 0 min 0,0 UV-I 63 W/m 7,7 km/h (2 Bft)
12.04.2013 08:42 8,4 C 7,3 C 96 % 1000,9 hPa 0,0 l/m 0 min 0 min 0,0 UV-I 74 W/m 12,9 km/h (3 Bft)
12.04.2013 08:44 8,4 C 7,3 C 96 % 1001,0 hPa 0,0 l/m 0 min 0 min 0,0 UV-I 70 W/m 12,9 km/h (3 Bft)
12.04.2013 08:46 8,5 C 7,3 C 96 % 1001,1 hPa 0,0 l/m 0 min 0 min 0,0 UV-I 70 W/m 12,9 km/h (3 Bft)
12.04.2013 08:48 8,5 C 7,3 C 96 % 1001,2 hPa 0,0 l/m 0 min 0 min 0,0 UV-I 67 W/m 10,3 km/h (2 Bft)
12.04.2013 08:50 8,6 C 7,3 C 96 % 1001,1 hPa 0,0 l/m 0 min 0 min 0,0 UV-I 58 W/m 12,9 km/h (3 Bft)
12.04.2013 08:52 8,6 C 7,3 C 95 % 1001,2 hPa 0,0 l/m 0 min 0 min 0,0 UV-I 53 W/m 2,6 km/h (1 Bft)
12.04.2013 08:54 8,6 C 7,3 C 95 % 1001,2 hPa 0,0 l/m 0 min 0 min 0,0 UV-I 58 W/m 7,7 km/h (2 Bft)
12.04.2013 08:56 8,6 C 7,3 C 96 % 1001,3 hPa 0,0 l/m 0 min 0 min 0,0 UV-I 56 W/m 12,9 km/h (3 Bft)
12.04.2013 08:58 8,7 C 7,3 C 95 % 1001,2 hPa 0,0 l/m 0 min 0 min 0,0 UV-I 53 W/m 7,7 km/h (2 Bft)
12.04.2013 09:00 8,7 C 7,3 C 95 % 1001,4 hPa 0,0 l/m 0 min 0 min 0,0 UV-I 46 W/m 10,3 km/h (2 Bft)
12.04.2013 09:02 8,7 C 7,3 C 95 % 1001,3 hPa 0,0 l/m 0 min 0 min 0,0 UV-I 33 W/m 12,9 km/h (3 Bft)
12.04.2013 09:06 8,7 C 7,3 C 95 % 1001,5 hPa 0,0 l/m 0 min 2 min 0,0 UV-I 30 W/m 18,0 km/h (3 Bft)
12.04.2013 09:08 8,7 C 7,3 C 95 % 1001,4 hPa 0,0 l/m 0 min 2 min 0,0 UV-I 33 W/m 12,9 km/h (3 Bft)
12.04.2013 09:10 8,7 C 7,3 C 95 % 1001,5 hPa 0,0 l/m 0 min 2 min 0,0 UV-I 37 W/m 2,6 km/h (1 Bft)
12.04.2013 09:12 8,7 C 7,3 C 95 % 1001,4 hPa 0,0 l/m 0 min 0 min 0,0 UV-I 46 W/m 7,7 km/h (2 Bft)
12.04.2013 09:14 8,7 C 7,3 C 95 % 1001,3 hPa 0,0 l/m 0 min 0 min 0,0 UV-I 51 W/m 10,3 km/h (2 Bft)
12.04.2013 09:16 8,7 C 7,3 C 94 % 1001,4 hPa 0,0 l/m 0 min 0 min 0,0 UV-I 62 W/m 5,1 km/h (1 Bft)
12.04.2013 09:18 8,8 C 7,3 C 95 % 1001,4 hPa 0,0 l/m 0 min 0 min 0,0 UV-I 77 W/m 2,6 km/h (1 Bft)
12.04.2013 09:20 8,8 C 7,3 C 95 % 1001,3 hPa 0,0 l/m 0 min 0 min 0,0 UV-I 79 W/m 7,7 km/h (2 Bft)
12.04.2013 09:22 8,8 C 7,3 C 95 % 1001,4 hPa 0,0 l/m 0 min 0 min 0,0 UV-I 81 W/m 0,0 km/h (0 Bft)
12.04.2013 09:24 8,8 C 7,3 C 95 % 1001,5 hPa 0,0 l/m 0 min 0 min 0,0 UV-I 90 W/m 7,7 km/h (2 Bft)
12.04.2013 09:26 8,8 C 7,3 C 95 % 1001,4 hPa 0,0 l/m 0 min 0 min 0,0 UV-I 97 W/m 15,4 km/h (3 Bft)
12.04.2013 09:28 8,8 C 7,9 C 95 % 1001,5 hPa 0,0 l/m 0 min 0 min 0,0 UV-I 105 W/m 7,7 km/h (2 Bft)
12.04.2013 09:30 8,8 C 7,9 C 95 % 1001,4 hPa 0,0 l/m 0 min 0 min 0,0 UV-I 107 W/m 10,3 km/h (2 Bft)
12.04.2013 09:32 8,9 C 7,9 C 95 % 1001,4 hPa 0,0 l/m 0 min 0 min 0,0 UV-I 109 W/m 7,7 km/h (2 Bft)
12.04.2013 09:34 8,9 C 7,9 C 95 % 1001,4 hPa 0,0 l/m 0 min 0 min 0,0 UV-I 107 W/m 5,1 km/h (1 Bft)
12.04.2013 09:36 8,9 C 7,9 C 95 % 1001,4 hPa 0,0 l/m 0 min 0 min 0,0 UV-I 95 W/m 7,7 km/h (2 Bft)
12.04.2013 09:38 9,0 C 7,9 C 94 % 1001,4 hPa 0,0 l/m 0 min 0 min 0,0 UV-I 86 W/m 5,1 km/h (1 Bft)
12.04.2013 09:40 9,1 C 7,9 C 94 % 1001,5 hPa 0,0 l/m 0 min 0 min 0,0 UV-I 79 W/m 12,9 km/h (3 Bft)
12.04.2013 09:42 9,1 C 7,9 C 94 % 1001,5 hPa 0,0 l/m 0 min 0 min 0,0 UV-I 79 W/m 12,9 km/h (3 Bft)
12.04.2013 09:44 9,1 C 7,9 C 94 % 1001,4 hPa 0,0 l/m 0 min 0 min 0,0 UV-I 81 W/m 2,6 km/h (1 Bft)
12.04.2013 09:46 9,1 C 7,9 C 94 % 1001,5 hPa 0,0 l/m 0 min 0 min 0,0 UV-I 91 W/m 2,6 km/h (1 Bft)
12.04.2013 09:48 9,2 C 8,4 C 94 % 1001,4 hPa 0,0 l/m 0 min 0 min 0,0 UV-I 86 W/m 2,6 km/h (1 Bft)
12.04.2013 09:50 9,2 C 8,4 C 94 % 1001,5 hPa 0,0 l/m 0 min 0 min 0,0 UV-I 86 W/m 12,9 km/h (3 Bft)
12.04.2013 09:52 9,2 C 8,4 C 94 % 1001,6 hPa 0,0 l/m 0 min 0 min 0,0 UV-I 220 W/m 10,3 km/h (2 Bft)
12.04.2013 09:54 9,3 C 9,6 C 94 % 1001,5 hPa 0,0 l/m 2 min 0 min 0,0 UV-I 445 W/m 2,6 km/h (1 Bft)
12.04.2013 09:56 9,4 C 9,6 C 94 % 1001,6 hPa 0,0 l/m 0 min 0 min 0,0 UV-I 148 W/m 7,7 km/h (2 Bft)
12.04.2013 09:58 9,6 C 9,6 C 94 % 1001,6 hPa 0,0 l/m 0 min 0 min 0,0 UV-I 104 W/m 7,7 km/h (2 Bft)
12.04.2013 10:00 9,6 C 9,6 C 93 % 1001,6 hPa 0,0 l/m 2 min 0 min 0,0 UV-I 404 W/m 10,3 km/h (2 Bft)
12.04.2013 10:02 9,7 C 9,6 C 93 % 1001,6 hPa 0,0 l/m 2 min 0 min 0,0 UV-I 396 W/m 7,7 km/h (2 Bft)
12.04.2013 10:04 9,9 C 10,1 C 93 % 1001,6 hPa 0,0 l/m 2 min 0 min 0,0 UV-I 406 W/m 7,7 km/h (2 Bft)
12.04.2013 10:06 10,1 C 10,1 C 92 % 1001,7 hPa 0,0 l/m 2 min 0 min 0,5 UV-I 418 W/m 23,2 km/h (4 Bft)
12.04.2013 10:08 10,2 C 10,1 C 91 % 1001,6 hPa 0,0 l/m 2 min 0 min 0,5 UV-I 432 W/m 12,9 km/h (3 Bft)
12.04.2013 10:10 10,4 C 10,7 C 91 % 1001,6 hPa 0,0 l/m 0 min 0 min 0,0 UV-I 149 W/m 2,6 km/h (1 Bft)
12.04.2013 10:12 10,6 C 11,2 C 91 % 1001,7 hPa 0,0 l/m 2 min 0 min 0,0 UV-I 508 W/m 23,2 km/h (4 Bft)
12.04.2013 10:14 10,8 C 11,2 C 89 % 1001,6 hPa 0,0 l/m 2 min 0 min 0,7 UV-I 508 W/m 18,0 km/h (3 Bft)
12.04.2013 10:16 10,9 C 11,2 C 88 % 1001,7 hPa 0,0 l/m 2 min 0 min 0,0 UV-I 508 W/m 18,0 km/h (3 Bft)
12.04.2013 10:18 11,1 C 11,2 C 88 % 1001,6 hPa 0,0 l/m 2 min 0 min 0,0 UV-I 290 W/m 20,6 km/h (4 Bft)
12.04.2013 10:20 11,2 C 12,3 C 87 % 1001,7 hPa 0,0 l/m 2 min 0 min 0,6 UV-I 448 W/m 15,4 km/h (3 Bft)
12.04.2013 10:22 11,3 C 12,9 C 86 % 1001,6 hPa 0,0 l/m 2 min 0 min 0,9 UV-I 360 W/m 28,3 km/h (4 Bft)
12.04.2013 10:24 11,4 C 12,9 C 86 % 1001,6 hPa 0,0 l/m 2 min 0 min 0,0 UV-I 360 W/m 18,0 km/h (3 Bft)
12.04.2013 10:26 11,6 C 13,4 C 84 % 1001,6 hPa 0,0 l/m 2 min 0 min 0,9 UV-I 360 W/m 23,2 km/h (4 Bft)
12.04.2013 10:28 11,7 C 13,4 C 84 % 1001,6 hPa 0,0 l/m 2 min 0 min 0,0 UV-I 529 W/m 23,2 km/h (4 Bft)
12.04.2013 10:30 11,8 C 12,9 C 83 % 1001,5 hPa 0,0 l/m 0 min 0 min 0,5 UV-I 299 W/m 20,6 km/h (4 Bft)
12.04.2013 10:32 11,9 C 12,3 C 82 % 1001,7 hPa 0,0 l/m 0 min 0 min 0,5 UV-I 211 W/m 25,7 km/h (4 Bft)
12.04.2013 10:34 11,9 C 12,3 C 81 % 1001,7 hPa 0,0 l/m 2 min 0 min 0,9 UV-I 499 W/m 23,2 km/h (4 Bft)
12.04.2013 10:36 11,9 C 12,3 C 81 % 1001,6 hPa 0,0 l/m 2 min 0 min 0,9 UV-I 489 W/m 28,3 km/h (4 Bft)
12.04.2013 10:38 12,0 C 13,4 C 81 % 1001,7 hPa 0,0 l/m 2 min 0 min 0,9 UV-I 492 W/m 12,9 km/h (3 Bft)
12.04.2013 10:40 12,1 C 13,4 C 81 % 1001,6 hPa 0,0 l/m 2 min 0 min 0,9 UV-I 469 W/m 15,4 km/h (3 Bft)
12.04.2013 10:42 12,2 C 12,9 C 81 % 1001,6 hPa 0,0 l/m 2 min 0 min 1,0 UV-I 520 W/m 18,0 km/h (3 Bft)
12.04.2013 10:44 12,3 C 12,9 C 81 % 1001,7 hPa 0,0 l/m 2 min 0 min 0,9 UV-I 531 W/m 25,7 km/h (4 Bft)
12.04.2013 10:46 12,4 C 12,9 C 81 % 1001,6 hPa 0,0 l/m 2 min 0 min 1,1 UV-I 541 W/m 18,0 km/h (3 Bft)
12.04.2013 10:48 12,5 C 12,9 C 80 % 1001,6 hPa 0,0 l/m 2 min 0 min 0,7 UV-I 570 W/m 12,9 km/h (3 Bft)
12.04.2013 10:50 12,6 C 12,3 C 78 % 1001,6 hPa 0,0 l/m 0 min 0 min 0,0 UV-I 137 W/m 25,7 km/h (4 Bft)
12.04.2013 10:52 12,6 C 11,8 C 78 % 1001,6 hPa 0,0 l/m 0 min 0 min 1,0 UV-I 146 W/m 18,0 km/h (3 Bft)
12.04.2013 10:54 12,6 C 11,8 C 77 % 1001,6 hPa 0,0 l/m 0 min 0 min 0,0 UV-I 146 W/m 23,2 km/h (4 Bft)
12.04.2013 10:56 12,5 C 11,8 C 77 % 1001,5 hPa 0,0 l/m 0 min 0 min 1,1 UV-I 165 W/m 33,5 km/h (5 Bft)
12.04.2013 10:58 12,5 C 12,3 C 77 % 1001,7 hPa 0,0 l/m 2 min 0 min 1,3 UV-I 601 W/m 18,0 km/h (3 Bft)
12.04.2013 11:00 12,6 C 12,9 C 77 % 1001,7 hPa 0,0 l/m 2 min 0 min 1,4 UV-I 577 W/m 23,2 km/h (4 Bft)
12.04.2013 11:02 12,7 C 12,9 C 76 % 1001,7 hPa 0,0 l/m 2 min 0 min 1,1 UV-I 577 W/m 28,3 km/h (4 Bft)
12.04.2013 11:04 12,7 C 12,9 C 76 % 1001,9 hPa 0,0 l/m 0 min 0 min 0,9 UV-I 288 W/m 28,3 km/h (4 Bft)
12.04.2013 11:06 12,7 C 12,3 C 75 % 1001,7 hPa 0,0 l/m 0 min 0 min 0,5 UV-I 234 W/m 23,2 km/h (4 Bft)
12.04.2013 11:08 12,7 C 12,3 C 76 % 1001,7 hPa 0,0 l/m 0 min 0 min 0,0 UV-I 213 W/m 20,6 km/h (4 Bft)
12.04.2013 11:10 12,7 C 12,9 C 76 % 1001,7 hPa 0,0 l/m 0 min 0 min 0,0 UV-I 158 W/m 10,3 km/h (2 Bft)
12.04.2013 11:12 12,8 C 12,3 C 76 % 1001,7 hPa 0,0 l/m 0 min 0 min 0,0 UV-I 134 W/m 28,3 km/h (4 Bft)
12.04.2013 11:14 12,7 C 11,8 C 75 % 1002,0 hPa 0,0 l/m 0 min 0 min 0,0 UV-I 149 W/m 18,0 km/h (3 Bft)
12.04.2013 11:16 12,7 C 11,8 C 75 % 1001,8 hPa 0,0 l/m 0 min 0 min 0,0 UV-I 151 W/m 7,7 km/h (2 Bft)
12.04.2013 11:18 12,7 C 11,8 C 76 % 1001,8 hPa 0,0 l/m 0 min 0 min 0,0 UV-I 183 W/m 7,7 km/h (2 Bft)
12.04.2013 11:20 12,7 C 11,8 C 76 % 1001,7 hPa 0,0 l/m 0 min 0 min 0,5 UV-I 250 W/m 12,9 km/h (3 Bft)
12.04.2013 11:22 12,7 C 11,8 C 75 % 1001,7 hPa 0,0 l/m 0 min 0 min 0,7 UV-I 246 W/m 18,0 km/h (3 Bft)
12.04.2013 11:24 12,6 C 12,3 C 75 % 1001,7 hPa 0,0 l/m 0 min 0 min 0,5 UV-I 220 W/m 12,9 km/h (3 Bft)
12.04.2013 11:26 12,6 C 12,3 C 75 % 1001,7 hPa 0,0 l/m 0 min 0 min 0,0 UV-I 183 W/m 30,9 km/h (5 Bft)
12.04.2013 11:28 12,6 C 12,3 C 75 % 1001,7 hPa 0,0 l/m 0 min 0 min 0,0 UV-I 181 W/m 18,0 km/h (3 Bft)
12.04.2013 11:30 12,6 C 11,8 C 74 % 1001,7 hPa 0,0 l/m 0 min 0 min 0,0 UV-I 179 W/m 25,7 km/h (4 Bft)
12.04.2013 11:32 12,6 C 11,8 C 74 % 1001,7 hPa 0,0 l/m 0 min 0 min 0,5 UV-I 195 W/m 15,4 km/h (3 Bft)
12.04.2013 11:34 12,6 C 12,3 C 74 % 1001,9 hPa 0,0 l/m 2 min 0 min 1,6 UV-I 610 W/m 18,0 km/h (3 Bft)
12.04.2013 11:36 12,7 C 12,9 C 74 % 1001,7 hPa 0,0 l/m 2 min 0 min 0,8 UV-I 517 W/m 15,4 km/h (3 Bft)
12.04.2013 11:38 12,7 C 12,9 C 74 % 1001,7 hPa 0,0 l/m 2 min 0 min 1,9 UV-I 721 W/m 18,0 km/h (3 Bft)
12.04.2013 11:40 12,8 C 12,9 C 73 % 1001,6 hPa 0,0 l/m 2 min 0 min 1,2 UV-I 721 W/m 23,2 km/h (4 Bft)
12.04.2013 11:42 12,9 C 12,9 C 73 % 1001,6 hPa 0,0 l/m 2 min 0 min 1,9 UV-I 645 W/m 20,6 km/h (4 Bft)
12.04.2013 11:44 13,0 C 12,9 C 72 % 1001,6 hPa 0,0 l/m 0 min 0 min 0,5 UV-I 144 W/m 20,6 km/h (4 Bft)
12.04.2013 11:46 13,1 C 12,9 C 72 % 1001,6 hPa 0,0 l/m 0 min 0 min 0,0 UV-I 162 W/m 15,4 km/h (3 Bft)
12.04.2013 11:48 13,1 C 12,9 C 72 % 1001,6 hPa 0,0 l/m 0 min 0 min 1,7 UV-I 204 W/m 10,3 km/h (2 Bft)
12.04.2013 11:50 13,2 C 13,4 C 72 % 1001,6 hPa 0,0 l/m 2 min 0 min 1,0 UV-I 381 W/m 12,9 km/h (3 Bft)
12.04.2013 11:52 13,3 C 13,4 C 72 % 1001,7 hPa 0,0 l/m 2 min 0 min 1,0 UV-I 381 W/m 15,4 km/h (3 Bft)
12.04.2013 11:54 13,3 C 14,0 C 72 % 1001,5 hPa 0,0 l/m 0 min 0 min 1,3 UV-I 311 W/m 10,3 km/h (2 Bft)
12.04.2013 11:56 13,4 C 14,0 C 72 % 1001,5 hPa 0,0 l/m 2 min 0 min 2,1 UV-I 454 W/m 18,0 km/h (3 Bft)
12.04.2013 11:58 13,5 C 14,0 C 72 % 1001,5 hPa 0,0 l/m 0 min 0 min 0,8 UV-I 264 W/m 15,4 km/h (3 Bft)
12.04.2013 12:00 13,6 C 14,0 C 71 % 1001,4 hPa 0,0 l/m 0 min 0 min 0,8 UV-I 250 W/m 10,3 km/h (2 Bft)
12.04.2013 12:02 13,6 C 13,4 C 71 % 1001,5 hPa 0,0 l/m 0 min 0 min 0,8 UV-I 255 W/m 18,0 km/h (3 Bft)
12.04.2013 12:06 13,7 C 13,4 C 69 % 1001,4 hPa 0,0 l/m 0 min 0 min 0,0 UV-I 206 W/m 18,0 km/h (3 Bft)
12.04.2013 12:08 13,7 C 13,4 C 70 % 1001,5 hPa 0,0 l/m 0 min 0 min 0,0 UV-I 142 W/m 15,4 km/h (3 Bft)
12.04.2013 12:10 13,7 C 12,9 C 70 % 1001,4 hPa 0,0 l/m 0 min 0 min 0,0 UV-I 139 W/m 10,3 km/h (2 Bft)
12.04.2013 12:12 13,6 C 12,9 C 69 % 1001,4 hPa 0,0 l/m 0 min 0 min 2,2 UV-I 190 W/m 23,2 km/h (4 Bft)
12.04.2013 12:14 13,6 C 13,4 C 69 % 1001,4 hPa 0,0 l/m 0 min 0 min 2,3 UV-I 190 W/m 15,4 km/h (3 Bft)
12.04.2013 12:16 13,6 C 14,0 C 69 % 1001,2 hPa 0,0 l/m 0 min 0 min 2,4 UV-I 190 W/m 20,6 km/h (4 Bft)
12.04.2013 12:18 13,6 C 14,0 C 70 % 1001,3 hPa 0,0 l/m 0 min 0 min 0,8 UV-I 190 W/m 18,0 km/h (3 Bft)
12.04.2013 12:20 13,7 C 14,0 C 70 % 1001,2 hPa 0,0 l/m 0 min 0 min 1,1 UV-I 295 W/m 20,6 km/h (4 Bft)
12.04.2013 12:22 13,7 C 14,0 C 70 % 1001,3 hPa 0,0 l/m 0 min 0 min 1,3 UV-I 288 W/m 18,0 km/h (3 Bft)
12.04.2013 12:24 13,7 C 14,0 C 68 % 1001,2 hPa 0,0 l/m 0 min 0 min 0,9 UV-I 287 W/m 25,7 km/h (4 Bft)
12.04.2013 12:26 13,8 C 15,1 C 69 % 1001,2 hPa 0,0 l/m 0 min 0 min 2,1 UV-I 287 W/m 18,0 km/h (3 Bft)
12.04.2013 12:28 13,8 C 14,6 C 68 % 1001,3 hPa 0,0 l/m 0 min 0 min 1,0 UV-I 294 W/m 23,2 km/h (4 Bft)
12.04.2013 12:30 13,9 C 15,1 C 68 % 1001,2 hPa 0,0 l/m 0 min 0 min 2,4 UV-I 311 W/m 10,3 km/h (2 Bft)
12.04.2013 12:32 14,0 C 15,1 C 69 % 1001,2 hPa 0,0 l/m 0 min 0 min 0,0 UV-I 306 W/m 7,7 km/h (2 Bft)
12.04.2013 12:34 14,1 C 14,6 C 69 % 1001,2 hPa 0,0 l/m 0 min 0 min 0,0 UV-I 153 W/m 18,0 km/h (3 Bft)
12.04.2013 12:36 14,1 C 13,4 C 68 % 1001,2 hPa 0,0 l/m 0 min 0 min 0,0 UV-I 197 W/m 20,6 km/h (4 Bft)
12.04.2013 12:38 14,1 C 13,4 C 67 % 1001,1 hPa 0,0 l/m 0 min 0 min 0,0 UV-I 230 W/m 20,6 km/h (4 Bft)
12.04.2013 12:40 14,1 C 13,4 C 68 % 1001,2 hPa 0,0 l/m 0 min 0 min 0,0 UV-I 176 W/m 15,4 km/h (3 Bft)
12.04.2013 12:42 14,0 C 13,4 C 68 % 1001,2 hPa 0,0 l/m 0 min 0 min 0,6 UV-I 271 W/m 12,9 km/h (3 Bft)
12.04.2013 12:44 14,0 C 13,4 C 68 % 1001,3 hPa 0,0 l/m 0 min 0 min 0,8 UV-I 267 W/m 7,7 km/h (2 Bft)
12.04.2013 12:46 14,0 C 14,0 C 69 % 1001,2 hPa 0,0 l/m 0 min 0 min 0,7 UV-I 255 W/m 20,6 km/h (4 Bft)
12.04.2013 12:48 13,9 C 13,4 C 68 % 1001,3 hPa 0,0 l/m 0 min 0 min 0,5 UV-I 195 W/m 20,6 km/h (4 Bft)
12.04.2013 12:50 13,9 C 13,4 C 68 % 1001,3 hPa 0,0 l/m 0 min 0 min 0,0 UV-I 167 W/m 28,3 km/h (4 Bft)
12.04.2013 12:52 13,8 C 12,9 C 68 % 1001,2 hPa 0,0 l/m 0 min 0 min 0,0 UV-I 176 W/m 25,7 km/h (4 Bft)
12.04.2013 12:54 13,7 C 12,9 C 68 % 1001,2 hPa 0,0 l/m 0 min 0 min 0,5 UV-I 237 W/m 12,9 km/h (3 Bft)
12.04.2013 12:56 13,7 C 12,9 C 69 % 1001,2 hPa 0,0 l/m 0 min 0 min 0,6 UV-I 232 W/m 10,3 km/h (2 Bft)
12.04.2013 12:58 13,7 C 12,9 C 69 % 1001,0 hPa 0,0 l/m 0 min 0 min 0,0 UV-I 200 W/m 18,0 km/h (3 Bft)
12.04.2013 13:00 13,6 C 12,9 C 69 % 1001,0 hPa 0,0 l/m 0 min 0 min 0,0 UV-I 183 W/m 23,2 km/h (4 Bft)
12.04.2013 13:02 13,6 C 12,9 C 69 % 1000,9 hPa 0,0 l/m 0 min 0 min 0,0 UV-I 151 W/m 20,6 km/h (4 Bft)
12.04.2013 13:04 13,5 C 12,3 C 69 % 1001,1 hPa 0,0 l/m 0 min 0 min 0,0 UV-I 125 W/m 18,0 km/h (3 Bft)
12.04.2013 13:06 13,4 C 12,3 C 69 % 1001,2 hPa 0,0 l/m 0 min 0 min 0,0 UV-I 132 W/m 12,9 km/h (3 Bft)
12.04.2013 13:08 13,4 C 12,3 C 70 % 1001,1 hPa 0,0 l/m 0 min 0 min 0,0 UV-I 174 W/m 20,6 km/h (4 Bft)
12.04.2013 13:10 13,3 C 12,3 C 70 % 1001,1 hPa 0,0 l/m 0 min 2 min 0,0 UV-I 155 W/m 18,0 km/h (3 Bft)
12.04.2013 13:12 13,3 C 11,8 C 71 % 1001,1 hPa 0,0 l/m 0 min 2 min 0,0 UV-I 135 W/m 12,9 km/h (3 Bft)
12.04.2013 13:14 13,3 C 11,2 C 71 % 1001,2 hPa 0,0 l/m 0 min 2 min 0,0 UV-I 134 W/m 18,0 km/h (3 Bft)
12.04.2013 13:16 13,2 C 11,2 C 74 % 1001,2 hPa 0,0 l/m 0 min 2 min 0,0 UV-I 132 W/m 23,2 km/h (4 Bft)
12.04.2013 13:18 13,2 C 10,7 C 76 % 1001,2 hPa 0,0 l/m 0 min 2 min 0,0 UV-I 163 W/m 20,6 km/h (4 Bft)
12.04.2013 13:20 13,0 C 10,1 C 76 % 1001,2 hPa 0,0 l/m 0 min 2 min 0,0 UV-I 137 W/m 23,2 km/h (4 Bft)
12.04.2013 13:22 12,9 C 10,1 C 77 % 1001,3 hPa 0,0 l/m 0 min 2 min 0,0 UV-I 155 W/m 18,0 km/h (3 Bft)
12.04.2013 13:24 12,7 C 10,1 C 77 % 1001,2 hPa 0,0 l/m 0 min 2 min 0,0 UV-I 155 W/m 18,0 km/h (3 Bft)
12.04.2013 13:26 12,6 C 10,1 C 78 % 1001,2 hPa 0,0 l/m 0 min 2 min 0,0 UV-I 135 W/m 10,3 km/h (2 Bft)
12.04.2013 13:28 12,6 C 10,1 C 78 % 1001,2 hPa 0,0 l/m 0 min 2 min 0,0 UV-I 109 W/m 12,9 km/h (3 Bft)
12.04.2013 13:30 12,4 C 10,1 C 78 % 1001,2 hPa 0,0 l/m 0 min 2 min 0,0 UV-I 107 W/m 12,9 km/h (3 Bft)
12.04.2013 13:32 12,4 C 10,1 C 79 % 1001,3 hPa 0,0 l/m 0 min 2 min 0,0 UV-I 104 W/m 0,0 km/h (0 Bft)
12.04.2013 13:34 12,3 C 9,6 C 80 % 1001,4 hPa 0,0 l/m 0 min 2 min 0,0 UV-I 113 W/m 12,9 km/h (3 Bft)
12.04.2013 13:36 12,3 C 9,6 C 79 % 1001,3 hPa 0,2 l/m 0 min 2 min 0,0 UV-I 202 W/m 20,6 km/h (4 Bft)
12.04.2013 13:38 12,2 C 10,1 C 81 % 1001,2 hPa 0,0 l/m 0 min 2 min 1,2 UV-I 366 W/m 5,1 km/h (1 Bft)
12.04.2013 13:40 12,2 C 11,2 C 81 % 1001,2 hPa 0,0 l/m 0 min 0 min 1,5 UV-I 366 W/m 15,4 km/h (3 Bft)
12.04.2013 13:42 12,3 C 11,8 C 82 % 1001,2 hPa 0,0 l/m 0 min 0 min 1,5 UV-I 366 W/m 10,3 km/h (2 Bft)
12.04.2013 13:44 12,3 C 11,8 C 82 % 1001,2 hPa 0,0 l/m 0 min 0 min 1,1 UV-I 278 W/m 15,4 km/h (3 Bft)
12.04.2013 13:46 12,4 C 12,3 C 81 % 1001,2 hPa 0,0 l/m 0 min 0 min 1,6 UV-I 316 W/m 20,6 km/h (4 Bft)
12.04.2013 13:48 12,6 C 12,9 C 80 % 1001,1 hPa 0,0 l/m 0 min 0 min 1,0 UV-I 316 W/m 10,3 km/h (2 Bft)
12.04.2013 13:50 12,6 C 12,3 C 79 % 1001,2 hPa 0,0 l/m 0 min 0 min 0,8 UV-I 264 W/m 18,0 km/h (3 Bft)
12.04.2013 13:52 12,7 C 12,3 C 79 % 1001,1 hPa 0,0 l/m 0 min 0 min 0,0 UV-I 162 W/m 15,4 km/h (3 Bft)
12.04.2013 13:54 12,7 C 12,3 C 78 % 1001,1 hPa 0,0 l/m 0 min 0 min 0,0 UV-I 128 W/m 18,0 km/h (3 Bft)
12.04.2013 13:56 12,7 C 11,8 C 77 % 1001,1 hPa 0,0 l/m 0 min 0 min 0,0 UV-I 111 W/m 10,3 km/h (2 Bft)
12.04.2013 13:58 12,7 C 11,8 C 77 % 1001,0 hPa 0,0 l/m 0 min 0 min 0,0 UV-I 95 W/m 18,0 km/h (3 Bft)
12.04.2013 14:00 12,7 C 11,2 C 77 % 1001,1 hPa 0,0 l/m 0 min 2 min 0,0 UV-I 158 W/m 15,4 km/h (3 Bft)
12.04.2013 14:02 12,7 C 11,2 C 77 % 1001,1 hPa 0,0 l/m 0 min 2 min 0,0 UV-I 225 W/m 25,7 km/h (4 Bft)
12.04.2013 14:04 12,6 C 11,8 C 77 % 1001,0 hPa 0,0 l/m 0 min 0 min 0,5 UV-I 244 W/m 23,2 km/h (4 Bft)
12.04.2013 14:06 12,6 C 11,8 C 77 % 1001,2 hPa 0,0 l/m 0 min 0 min 0,9 UV-I 292 W/m 15,4 km/h (3 Bft)
12.04.2013 14:08 12,6 C 12,3 C 77 % 1000,9 hPa 0,0 l/m 0 min 0 min 1,1 UV-I 378 W/m 18,0 km/h (3 Bft)
12.04.2013 14:10 12,7 C 12,9 C 77 % 1000,9 hPa 0,0 l/m 0 min 0 min 0,8 UV-I 218 W/m 18,0 km/h (3 Bft)
12.04.2013 14:12 12,7 C 12,9 C 77 % 1000,9 hPa 0,0 l/m 0 min 0 min 0,6 UV-I 253 W/m 25,7 km/h (4 Bft)
12.04.2013 14:14 12,8 C 13,4 C 77 % 1000,9 hPa 0,0 l/m 0 min 0 min 1,1 UV-I 343 W/m 5,1 km/h (1 Bft)
12.04.2013 14:16 12,9 C 13,4 C 76 % 1000,8 hPa 0,0 l/m 0 min 0 min 1,0 UV-I 345 W/m 18,0 km/h (3 Bft)
12.04.2013 14:18 13,0 C 13,4 C 77 % 1000,7 hPa 0,0 l/m 0 min 0 min 1,0 UV-I 302 W/m 12,9 km/h (3 Bft)
12.04.2013 14:20 13,1 C 14,0 C 77 % 1000,7 hPa 0,0 l/m 2 min 0 min 1,3 UV-I 469 W/m 20,6 km/h (4 Bft)
12.04.2013 14:22 13,2 C 13,4 C 75 % 1000,7 hPa 0,0 l/m 2 min 0 min 0,8 UV-I 469 W/m 18,0 km/h (3 Bft)
12.04.2013 14:24 13,3 C 13,4 C 75 % 1000,7 hPa 0,0 l/m 0 min 0 min 0,5 UV-I 225 W/m 25,7 km/h (4 Bft)
12.04.2013 14:26 13,4 C 13,4 C 75 % 1000,6 hPa 0,0 l/m 0 min 0 min 0,5 UV-I 232 W/m 12,9 km/h (3 Bft)
12.04.2013 14:28 13,4 C 13,4 C 74 % 1000,6 hPa 0,0 l/m 0 min 0 min 0,6 UV-I 279 W/m 20,6 km/h (4 Bft)
12.04.2013 14:30 13,5 C 13,4 C 74 % 1000,7 hPa 0,0 l/m 0 min 0 min 0,9 UV-I 283 W/m 23,2 km/h (4 Bft)
12.04.2013 14:32 13,6 C 13,4 C 74 % 1000,6 hPa 0,0 l/m 0 min 0 min 0,7 UV-I 278 W/m 15,4 km/h (3 Bft)
12.04.2013 14:34 13,6 C 13,4 C 73 % 1000,6 hPa 0,0 l/m 0 min 0 min 1,3 UV-I 325 W/m 15,4 km/h (3 Bft)
12.04.2013 14:36 13,7 C 13,4 C 73 % 1000,5 hPa 0,0 l/m 0 min 0 min 0,8 UV-I 232 W/m 20,6 km/h (4 Bft)
12.04.2013 14:38 13,7 C 13,4 C 72 % 1000,6 hPa 0,0 l/m 0 min 0 min 0,6 UV-I 218 W/m 23,2 km/h (4 Bft)
12.04.2013 14:40 13,7 C 13,4 C 73 % 1000,4 hPa 0,0 l/m 0 min 0 min 1,1 UV-I 262 W/m 12,9 km/h (3 Bft)
12.04.2013 14:42 13,8 C 13,4 C 73 % 1000,4 hPa 0,0 l/m 0 min 0 min 2,4 UV-I 350 W/m 18,0 km/h (3 Bft)
12.04.2013 14:44 13,9 C 14,0 C 73 % 1000,5 hPa 0,0 l/m 0 min 0 min 2,2 UV-I 350 W/m 28,3 km/h (4 Bft)
12.04.2013 14:46 14,0 C 14,0 C 72 % 1000,5 hPa 0,0 l/m 0 min 0 min 0,6 UV-I 253 W/m 25,7 km/h (4 Bft)
12.04.2013 14:48 14,1 C 14,0 C 72 % 1000,4 hPa 0,0 l/m 0 min 0 min 2,0 UV-I 237 W/m 23,2 km/h (4 Bft)
12.04.2013 14:50 14,1 C 14,0 C 72 % 1000,5 hPa 0,0 l/m 0 min 0 min 1,0 UV-I 237 W/m 23,2 km/h (4 Bft)
12.04.2013 14:52 14,2 C 14,6 C 73 % 1000,6 hPa 0,0 l/m 0 min 0 min 2,3 UV-I 237 W/m 25,7 km/h (4 Bft)
12.04.2013 14:54 14,3 C 14,6 C 72 % 1000,4 hPa 0,0 l/m 0 min 0 min 0,8 UV-I 272 W/m 18,0 km/h (3 Bft)
12.04.2013 14:56 14,4 C 14,6 C 72 % 1000,4 hPa 0,0 l/m 0 min 0 min 2,4 UV-I 323 W/m 15,4 km/h (3 Bft)
12.04.2013 14:58 14,5 C 14,6 C 72 % 1000,4 hPa 0,0 l/m 0 min 0 min 0,6 UV-I 206 W/m 28,3 km/h (4 Bft)
12.04.2013 15:00 14,5 C 14,0 C 70 % 1000,3 hPa 0,0 l/m 0 min 0 min 1,3 UV-I 258 W/m 30,9 km/h (5 Bft)
12.04.2013 15:02 14,5 C 14,0 C 71 % 1000,4 hPa 0,0 l/m 0 min 0 min 0,8 UV-I 311 W/m 23,2 km/h (4 Bft)
12.04.2013 15:06 14,4 C 14,0 C 71 % 1000,4 hPa 0,0 l/m 2 min 0 min 0,9 UV-I 381 W/m 23,2 km/h (4 Bft)
12.04.2013 15:08 14,4 C 14,0 C 71 % 1000,4 hPa 0,0 l/m 0 min 0 min 0,0 UV-I 155 W/m 23,2 km/h (4 Bft)
12.04.2013 15:10 14,4 C 13,4 C 71 % 1000,4 hPa 0,0 l/m 0 min 0 min 0,0 UV-I 116 W/m 38,6 km/h (5 Bft)
12.04.2013 15:12 14,2 C 12,9 C 71 % 1000,4 hPa 0,0 l/m 0 min 2 min 0,0 UV-I 137 W/m 38,6 km/h (5 Bft)
12.04.2013 15:14 14,1 C 12,3 C 72 % 1000,5 hPa 0,0 l/m 0 min 2 min 0,0 UV-I 176 W/m 15,4 km/h (3 Bft)
12.04.2013 15:16 14,0 C 12,3 C 73 % 1000,4 hPa 0,0 l/m 0 min 0 min 0,5 UV-I 239 W/m 28,3 km/h (4 Bft)
12.04.2013 15:18 13,9 C 12,9 C 73 % 1000,5 hPa 0,0 l/m 0 min 0 min 0,6 UV-I 271 W/m 25,7 km/h (4 Bft)
12.04.2013 15:20 13,8 C 12,9 C 72 % 1000,5 hPa 0,0 l/m 0 min 0 min 0,6 UV-I 237 W/m 33,5 km/h (5 Bft)
12.04.2013 15:22 13,7 C 12,9 C 73 % 1000,5 hPa 0,0 l/m 0 min 0 min 0,0 UV-I 223 W/m 33,5 km/h (5 Bft)
12.04.2013 15:24 13,7 C 12,9 C 73 % 1000,5 hPa 0,0 l/m 0 min 0 min 0,0 UV-I 239 W/m 15,4 km/h (3 Bft)
12.04.2013 15:26 13,6 C 12,9 C 74 % 1000,5 hPa 0,0 l/m 0 min 0 min 0,6 UV-I 336 W/m 15,4 km/h (3 Bft)
12.04.2013 15:28 13,6 C 13,4 C 74 % 1000,4 hPa 0,0 l/m 2 min 0 min 1,5 UV-I 508 W/m 23,2 km/h (4 Bft)
12.04.2013 15:30 13,6 C 14,0 C 75 % 1000,5 hPa 0,0 l/m 2 min 0 min 1,2 UV-I 552 W/m 20,6 km/h (4 Bft)
12.04.2013 15:32 13,6 C 14,0 C 75 % 1000,5 hPa 0,0 l/m 0 min 0 min 1,0 UV-I 338 W/m 25,7 km/h (4 Bft)
12.04.2013 15:34 13,7 C 14,0 C 74 % 1000,5 hPa 0,0 l/m 2 min 0 min 1,0 UV-I 364 W/m 23,2 km/h (4 Bft)
12.04.2013 15:36 13,7 C 14,6 C 75 % 1000,5 hPa 0,0 l/m 2 min 0 min 2,1 UV-I 793 W/m 18,0 km/h (3 Bft)
12.04.2013 15:38 13,8 C 14,6 C 74 % 1000,5 hPa 0,0 l/m 0 min 0 min 0,7 UV-I 234 W/m 20,6 km/h (4 Bft)
12.04.2013 15:40 13,9 C 14,0 C 73 % 1000,5 hPa 0,0 l/m 2 min 0 min 0,9 UV-I 367 W/m 25,7 km/h (4 Bft)
12.04.2013 15:42 14,0 C 14,6 C 74 % 1000,4 hPa 0,0 l/m 2 min 0 min 1,8 UV-I 742 W/m 18,0 km/h (3 Bft)
12.04.2013 15:44 14,2 C 15,1 C 74 % 1000,4 hPa 0,0 l/m 2 min 0 min 1,8 UV-I 666 W/m 20,6 km/h (4 Bft)
12.04.2013 15:46 14,3 C 15,1 C 73 % 1000,3 hPa 0,0 l/m 2 min 0 min 1,9 UV-I 740 W/m 15,4 km/h (3 Bft)
12.04.2013 15:48 14,6 C 15,1 C 73 % 1000,4 hPa 0,0 l/m 2 min 0 min 0,7 UV-I 742 W/m 12,9 km/h (3 Bft)
12.04.2013 15:50 14,7 C 15,1 C 72 % 1000,4 hPa 0,0 l/m 0 min 0 min 1,3 UV-I 267 W/m 15,4 km/h (3 Bft)
12.04.2013 15:52 14,8 C 15,1 C 71 % 1000,3 hPa 0,0 l/m 2 min 0 min 1,3 UV-I 795 W/m 28,3 km/h (4 Bft)
12.04.2013 15:54 14,9 C 15,1 C 71 % 1000,4 hPa 0,0 l/m 2 min 0 min 1,5 UV-I 721 W/m 28,3 km/h (4 Bft)
12.04.2013 15:56 15,0 C 15,1 C 71 % 1000,3 hPa 0,0 l/m 2 min 0 min 1,7 UV-I 657 W/m 25,7 km/h (4 Bft)
12.04.2013 15:58 15,0 C 15,1 C 70 % 1000,2 hPa 0,0 l/m 0 min 0 min 0,7 UV-I 260 W/m 18,0 km/h (3 Bft)
12.04.2013 16:00 15,0 C 14,6 C 69 % 1000,3 hPa 0,0 l/m 0 min 0 min 1,8 UV-I 334 W/m 18,0 km/h (3 Bft)
12.04.2013 16:02 15,0 C 15,1 C 69 % 1000,3 hPa 0,0 l/m 0 min 0 min 1,3 UV-I 332 W/m 28,3 km/h (4 Bft)
12.04.2013 16:04 15,2 C 15,1 C 70 % 1000,3 hPa 0,0 l/m 0 min 0 min 1,1 UV-I 332 W/m 20,6 km/h (4 Bft)
12.04.2013 16:06 15,2 C 15,7 C 69 % 1000,1 hPa 0,0 l/m 2 min 0 min 1,6 UV-I 698 W/m 10,3 km/h (2 Bft)
12.04.2013 16:08 15,3 C 15,7 C 68 % 1000,2 hPa 0,0 l/m 0 min 0 min 0,0 UV-I 158 W/m 12,9 km/h (3 Bft)
12.04.2013 16:10 15,4 C 15,1 C 67 % 1000,2 hPa 0,0 l/m 0 min 0 min 0,0 UV-I 127 W/m 18,0 km/h (3 Bft)
12.04.2013 16:12 15,3 C 14,0 C 66 % 1000,4 hPa 0,0 l/m 0 min 0 min 0,0 UV-I 139 W/m 20,6 km/h (4 Bft)
12.04.2013 16:14 15,1 C 14,0 C 66 % 1000,4 hPa 0,0 l/m 0 min 0 min 0,0 UV-I 156 W/m 38,6 km/h (5 Bft)
12.04.2013 16:16 15,0 C 13,4 C 67 % 1000,2 hPa 0,0 l/m 0 min 0 min 0,0 UV-I 153 W/m 18,0 km/h (3 Bft)
12.04.2013 16:18 15,0 C 14,0 C 68 % 1000,3 hPa 0,0 l/m 0 min 0 min 0,0 UV-I 139 W/m 5,1 km/h (1 Bft)
12.04.2013 16:20 15,0 C 14,0 C 68 % 1000,2 hPa 0,0 l/m 0 min 0 min 0,0 UV-I 223 W/m 12,9 km/h (3 Bft)
12.04.2013 16:22 15,0 C 14,6 C 68 % 1000,3 hPa 0,0 l/m 0 min 0 min 0,0 UV-I 255 W/m 18,0 km/h (3 Bft)
12.04.2013 16:24 14,9 C 15,1 C 67 % 1000,3 hPa 0,0 l/m 0 min 0 min 1,1 UV-I 243 W/m 23,2 km/h (4 Bft)
12.04.2013 16:26 15,0 C 15,1 C 68 % 1000,3 hPa 0,0 l/m 2 min 0 min 0,0 UV-I 654 W/m 28,3 km/h (4 Bft)
12.04.2013 16:28 15,0 C 14,6 C 68 % 1000,5 hPa 0,0 l/m 0 min 0 min 0,0 UV-I 172 W/m 23,2 km/h (4 Bft)
12.04.2013 16:30 15,0 C 14,6 C 68 % 1000,4 hPa 0,0 l/m 0 min 0 min 0,0 UV-I 248 W/m 12,9 km/h (3 Bft)
12.04.2013 16:32 14,9 C 14,6 C 68 % 1000,4 hPa 0,0 l/m 2 min 0 min 0,0 UV-I 315 W/m 25,7 km/h (4 Bft)
12.04.2013 16:34 14,9 C 14,6 C 68 % 1000,4 hPa 0,0 l/m 0 min 0 min 1,1 UV-I 306 W/m 18,0 km/h (3 Bft)
12.04.2013 16:36 14,9 C 14,6 C 67 % 1000,2 hPa 0,0 l/m 2 min 0 min 1,0 UV-I 670 W/m 23,2 km/h (4 Bft)
12.04.2013 16:38 14,9 C 14,6 C 68 % 1000,2 hPa 0,0 l/m 0 min 0 min 1,0 UV-I 211 W/m 18,0 km/h (3 Bft)
12.04.2013 16:40 14,9 C 14,6 C 67 % 1000,4 hPa 0,0 l/m 0 min 0 min 0,0 UV-I 243 W/m 15,4 km/h (3 Bft)
12.04.2013 16:42 14,9 C 14,0 C 67 % 1000,2 hPa 0,0 l/m 0 min 0 min 0,0 UV-I 155 W/m 28,3 km/h (4 Bft)
12.04.2013 16:44 14,8 C 14,0 C 67 % 1000,3 hPa 0,0 l/m 0 min 0 min 0,0 UV-I 156 W/m 20,6 km/h (4 Bft)
12.04.2013 16:46 14,7 C 14,0 C 67 % 1000,3 hPa 0,0 l/m 0 min 0 min 0,5 UV-I 171 W/m 23,2 km/h (4 Bft)
12.04.2013 16:48 14,7 C 14,6 C 68 % 1000,2 hPa 0,0 l/m 0 min 0 min 0,0 UV-I 214 W/m 20,6 km/h (4 Bft)
12.04.2013 16:50 14,7 C 14,6 C 67 % 1000,2 hPa 0,0 l/m 0 min 0 min 0,0 UV-I 214 W/m 15,4 km/h (3 Bft)
12.04.2013 16:52 14,8 C 14,6 C 68 % 1000,2 hPa 0,0 l/m 0 min 0 min 0,0 UV-I 214 W/m 15,4 km/h (3 Bft)
12.04.2013 16:54 14,8 C 14,6 C 67 % 1000,1 hPa 0,0 l/m 2 min 0 min 0,0 UV-I 517 W/m 15,4 km/h (3 Bft)
12.04.2013 16:56 14,8 C 14,6 C 67 % 1000,2 hPa 0,0 l/m 0 min 0 min 0,0 UV-I 281 W/m 15,4 km/h (3 Bft)
12.04.2013 16:58 14,8 C 14,6 C 67 % 1000,1 hPa 0,0 l/m 0 min 0 min 0,0 UV-I 209 W/m 20,6 km/h (4 Bft)
12.04.2013 17:00 14,8 C 14,0 C 66 % 1000,3 hPa 0,0 l/m 0 min 0 min 0,0 UV-I 160 W/m 25,7 km/h (4 Bft)
12.04.2013 17:02 14,8 C 14,0 C 67 % 1000,1 hPa 0,0 l/m 2 min 0 min 0,0 UV-I 288 W/m 15,4 km/h (3 Bft)
12.04.2013 17:04 14,8 C 14,0 C 67 % 1000,0 hPa 0,0 l/m 0 min 0 min 0,0 UV-I 116 W/m 12,9 km/h (3 Bft)
12.04.2013 17:06 14,8 C 13,4 C 67 % 1000,0 hPa 0,0 l/m 0 min 0 min 0,0 UV-I 146 W/m 15,4 km/h (3 Bft)
12.04.2013 17:08 14,7 C 13,4 C 67 % 1000,0 hPa 0,0 l/m 0 min 0 min 0,0 UV-I 153 W/m 12,9 km/h (3 Bft)
12.04.2013 17:10 14,7 C 13,4 C 67 % 1000,0 hPa 0,0 l/m 0 min 0 min 0,0 UV-I 121 W/m 20,6 km/h (4 Bft)
12.04.2013 17:12 14,6 C 13,4 C 67 % 1000,1 hPa 0,0 l/m 0 min 0 min 0,0 UV-I 132 W/m 23,2 km/h (4 Bft)
12.04.2013 17:14 14,6 C 13,4 C 67 % 1000,1 hPa 0,0 l/m 0 min 0 min 0,0 UV-I 120 W/m 15,4 km/h (3 Bft)
12.04.2013 17:16 14,6 C 13,4 C 68 % 1000,2 hPa 0,0 l/m 0 min 0 min 0,0 UV-I 116 W/m 12,9 km/h (3 Bft)
12.04.2013 17:18 14,6 C 13,4 C 68 % 1000,2 hPa 0,0 l/m 0 min 0 min 0,0 UV-I 97 W/m 18,0 km/h (3 Bft)
12.04.2013 17:20 14,6 C 13,4 C 69 % 1000,2 hPa 0,0 l/m 0 min 0 min 0,0 UV-I 88 W/m 12,9 km/h (3 Bft)
12.04.2013 17:22 14,5 C 13,4 C 68 % 1000,1 hPa 0,0 l/m 0 min 0 min 0,0 UV-I 70 W/m 28,3 km/h (4 Bft)
12.04.2013 17:24 14,5 C 12,9 C 69 % 1000,3 hPa 0,0 l/m 0 min 0 min 0,0 UV-I 47 W/m 28,3 km/h (4 Bft)
12.04.2013 17:26 14,4 C 12,9 C 68 % 1000,3 hPa 0,0 l/m 0 min 0 min 0,0 UV-I 49 W/m 23,2 km/h (4 Bft)
12.04.2013 17:28 14,3 C 12,9 C 68 % 1000,3 hPa 0,0 l/m 0 min 0 min 0,0 UV-I 54 W/m 28,3 km/h (4 Bft)
12.04.2013 17:30 14,3 C 12,9 C 69 % 1000,4 hPa 0,0 l/m 0 min 0 min 0,0 UV-I 53 W/m 23,2 km/h (4 Bft)
12.04.2013 17:32 14,2 C 12,3 C 69 % 1000,4 hPa 0,0 l/m 0 min 2 min 0,0 UV-I 51 W/m 23,2 km/h (4 Bft)
12.04.2013 17:34 14,2 C 12,3 C 70 % 1000,5 hPa 0,0 l/m 0 min 0 min 0,0 UV-I 46 W/m 30,9 km/h (5 Bft)
12.04.2013 17:36 14,1 C 11,8 C 71 % 1000,6 hPa 0,0 l/m 0 min 2 min 0,0 UV-I 33 W/m 30,9 km/h (5 Bft)
12.04.2013 17:38 13,9 C 11,8 C 73 % 1000,7 hPa 0,0 l/m 0 min 2 min 0,0 UV-I 33 W/m 25,7 km/h (4 Bft)
12.04.2013 17:40 13,8 C 11,2 C 74 % 1000,8 hPa 0,0 l/m 0 min 2 min 0,0 UV-I 32 W/m 23,2 km/h (4 Bft)
12.04.2013 17:42 13,7 C 10,7 C 75 % 1000,8 hPa 0,0 l/m 0 min 2 min 0,0 UV-I 28 W/m 28,3 km/h (4 Bft)
12.04.2013 17:44 13,4 C 10,7 C 77 % 1000,9 hPa 0,0 l/m 0 min 2 min 0,0 UV-I 26 W/m 20,6 km/h (4 Bft)
12.04.2013 17:46 13,3 C 10,7 C 77 % 1001,0 hPa 0,0 l/m 0 min 2 min 0,0 UV-I 23 W/m 15,4 km/h (3 Bft)
12.04.2013 17:48 13,1 C 10,7 C 78 % 1001,2 hPa 0,0 l/m 0 min 2 min 0,0 UV-I 18 W/m 23,2 km/h (4 Bft)
12.04.2013 17:50 12,9 C 10,7 C 78 % 1001,2 hPa 0,0 l/m 0 min 0 min 0,0 UV-I 16 W/m 23,2 km/h (4 Bft)
12.04.2013 17:52 12,8 C 10,7 C 78 % 1001,1 hPa 0,0 l/m 0 min 0 min 0,0 UV-I 16 W/m 23,2 km/h (4 Bft)
12.04.2013 17:54 12,7 C 10,7 C 78 % 1001,0 hPa 0,0 l/m 0 min 0 min 0,0 UV-I 19 W/m 12,9 km/h (3 Bft)
12.04.2013 17:56 12,6 C 10,7 C 77 % 1001,3 hPa 0,0 l/m 0 min 0 min 0,0 UV-I 23 W/m 30,9 km/h (5 Bft)
12.04.2013 17:58 12,4 C 10,7 C 76 % 1001,4 hPa 0,0 l/m 0 min 0 min 0,0 UV-I 28 W/m 25,7 km/h (4 Bft)
12.04.2013 18:00 12,3 C 10,7 C 75 % 1001,1 hPa 0,0 l/m 0 min 0 min 0,0 UV-I 30 W/m 36,0 km/h (5 Bft)
12.04.2013 18:02 12,3 C 10,7 C 75 % 1001,0 hPa 0,0 l/m 0 min 0 min 0,0 UV-I 28 W/m 23,2 km/h (4 Bft)
12.04.2013 18:06 12,2 C 10,7 C 76 % 1001,0 hPa 0,0 l/m 0 min 2 min 0,0 UV-I 47 W/m 28,3 km/h (4 Bft)
12.04.2013 18:08 12,1 C 10,7 C 75 % 1001,2 hPa 0,0 l/m 0 min 2 min 0,0 UV-I 83 W/m 20,6 km/h (4 Bft)
12.04.2013 18:10 12,1 C 10,7 C 75 % 1001,0 hPa 0,0 l/m 0 min 0 min 0,0 UV-I 116 W/m 20,6 km/h (4 Bft)
12.04.2013 18:12 12,0 C 10,7 C 75 % 1001,1 hPa 0,0 l/m 0 min 0 min 0,0 UV-I 123 W/m 20,6 km/h (4 Bft)
12.04.2013 18:14 11,9 C 10,7 C 76 % 1001,2 hPa 0,0 l/m 0 min 0 min 0,0 UV-I 116 W/m 23,2 km/h (4 Bft)
12.04.2013 18:16 11,9 C 11,2 C 76 % 1001,2 hPa 0,0 l/m 0 min 0 min 0,0 UV-I 107 W/m 10,3 km/h (2 Bft)
12.04.2013 18:18 11,9 C 11,2 C 76 % 1001,2 hPa 0,0 l/m 0 min 0 min 0,0 UV-I 109 W/m 12,9 km/h (3 Bft)
12.04.2013 18:20 11,9 C 11,2 C 76 % 1001,2 hPa 0,0 l/m 0 min 0 min 0,0 UV-I 148 W/m 15,4 km/h (3 Bft)
12.04.2013 18:22 11,9 C 11,2 C 76 % 1001,3 hPa 0,0 l/m 0 min 0 min 0,0 UV-I 165 W/m 12,9 km/h (3 Bft)
12.04.2013 18:24 11,9 C 11,2 C 76 % 1001,3 hPa 0,0 l/m 0 min 0 min 0,0 UV-I 156 W/m 15,4 km/h (3 Bft)
12.04.2013 18:26 12,0 C 11,2 C 75 % 1001,2 hPa 0,0 l/m 0 min 0 min 0,0 UV-I 125 W/m 23,2 km/h (4 Bft)
12.04.2013 18:28 12,0 C 11,2 C 75 % 1001,2 hPa 0,0 l/m 0 min 0 min 0,0 UV-I 90 W/m 18,0 km/h (3 Bft)
12.04.2013 18:30 12,0 C 11,2 C 75 % 1001,3 hPa 0,0 l/m 0 min 0 min 0,0 UV-I 91 W/m 20,6 km/h (4 Bft)
12.04.2013 18:32 11,9 C 10,7 C 76 % 1001,3 hPa 0,0 l/m 0 min 0 min 0,0 UV-I 93 W/m 28,3 km/h (4 Bft)
12.04.2013 18:34 11,9 C 10,7 C 76 % 1001,4 hPa 0,0 l/m 0 min 0 min 0,0 UV-I 88 W/m 28,3 km/h (4 Bft)
12.04.2013 18:36 11,9 C 10,7 C 76 % 1001,4 hPa 0,0 l/m 0 min 0 min 0,0 UV-I 81 W/m 12,9 km/h (3 Bft)
12.04.2013 18:38 11,9 C 10,7 C 77 % 1001,4 hPa 0,0 l/m 0 min 0 min 0,0 UV-I 74 W/m 25,7 km/h (4 Bft)
12.04.2013 18:40 11,9 C 10,7 C 77 % 1001,5 hPa 0,0 l/m 0 min 0 min 0,0 UV-I 69 W/m 18,0 km/h (3 Bft)
12.04.2013 18:42 11,8 C 10,7 C 76 % 1001,5 hPa 0,0 l/m 0 min 0 min 0,0 UV-I 70 W/m 15,4 km/h (3 Bft)
12.04.2013 18:44 11,8 C 10,7 C 77 % 1001,5 hPa 0,0 l/m 0 min 0 min 0,0 UV-I 74 W/m 25,7 km/h (4 Bft)
12.04.2013 18:46 11,8 C 10,7 C 77 % 1001,6 hPa 0,0 l/m 0 min 0 min 0,0 UV-I 69 W/m 25,7 km/h (4 Bft)
12.04.2013 18:48 11,8 C 10,7 C 77 % 1001,5 hPa 0,0 l/m 0 min 0 min 0,0 UV-I 62 W/m 15,4 km/h (3 Bft)
12.04.2013 18:50 11,8 C 10,7 C 77 % 1001,6 hPa 0,0 l/m 0 min 0 min 0,0 UV-I 60 W/m 20,6 km/h (4 Bft)
12.04.2013 18:52 11,8 C 10,7 C 77 % 1001,7 hPa 0,0 l/m 0 min 0 min 0,0 UV-I 47 W/m 15,4 km/h (3 Bft)
12.04.2013 18:54 11,8 C 10,7 C 77 % 1001,6 hPa 0,0 l/m 0 min 0 min 0,0 UV-I 37 W/m 15,4 km/h (3 Bft)
12.04.2013 18:56 11,8 C 10,7 C 77 % 1001,7 hPa 0,0 l/m 0 min 0 min 0,0 UV-I 28 W/m 7,7 km/h (2 Bft)
12.04.2013 18:58 11,7 C 10,7 C 77 % 1001,6 hPa 0,0 l/m 0 min 0 min 0,0 UV-I 18 W/m 5,1 km/h (1 Bft)
12.04.2013 19:00 11,7 C 10,7 C 77 % 1001,8 hPa 0,0 l/m 0 min 0 min 0,0 UV-I 14 W/m 12,9 km/h (3 Bft)
12.04.2013 19:02 11,7 C 10,7 C 77 % 1001,7 hPa 0,0 l/m 0 min 0 min 0,0 UV-I 16 W/m 5,1 km/h (1 Bft)
12.04.2013 19:04 11,7 C 10,7 C 77 % 1001,7 hPa 0,0 l/m 0 min 0 min 0,0 UV-I 25 W/m 12,9 km/h (3 Bft)
12.04.2013 19:06 11,7 C 10,7 C 77 % 1001,8 hPa 0,0 l/m 0 min 0 min 0,0 UV-I 28 W/m 12,9 km/h (3 Bft)
12.04.2013 19:08 11,7 C 10,7 C 77 % 1001,8 hPa 0,0 l/m 0 min 0 min 0,0 UV-I 26 W/m 15,4 km/h (3 Bft)
12.04.2013 19:10 11,7 C 10,7 C 77 % 1001,8 hPa 0,0 l/m 0 min 0 min 0,0 UV-I 21 W/m 10,3 km/h (2 Bft)
12.04.2013 19:12 11,7 C 10,7 C 77 % 1001,9 hPa 0,0 l/m 0 min 0 min 0,0 UV-I 23 W/m 12,9 km/h (3 Bft)
12.04.2013 19:14 11,7 C 10,7 C 77 % 1001,9 hPa 0,0 l/m 0 min 0 min 0,0 UV-I 28 W/m 10,3 km/h (2 Bft)
12.04.2013 19:16 11,7 C 10,7 C 77 % 1001,9 hPa 0,0 l/m 0 min 0 min 0,0 UV-I 28 W/m 12,9 km/h (3 Bft)
12.04.2013 19:18 11,7 C 10,7 C 77 % 1001,9 hPa 0,0 l/m 0 min 0 min 0,0 UV-I 32 W/m 18,0 km/h (3 Bft)
12.04.2013 19:20 11,7 C 10,7 C 78 % 1001,9 hPa 0,0 l/m 0 min 0 min 0,0 UV-I 35 W/m 10,3 km/h (2 Bft)
12.04.2013 19:22 11,7 C 10,7 C 78 % 1001,9 hPa 0,0 l/m 0 min 0 min 0,0 UV-I 39 W/m 15,4 km/h (3 Bft)
12.04.2013 19:24 11,7 C 10,7 C 78 % 1001,8 hPa 0,0 l/m 0 min 0 min 0,0 UV-I 67 W/m 12,9 km/h (3 Bft)
12.04.2013 19:26 11,7 C 10,7 C 78 % 1001,7 hPa 0,0 l/m 0 min 0 min 0,0 UV-I 67 W/m 10,3 km/h (2 Bft)
12.04.2013 19:28 11,8 C 10,7 C 78 % 1001,8 hPa 0,0 l/m 2 min 0 min 0,0 UV-I 84 W/m 2,6 km/h (1 Bft)
12.04.2013 19:30 11,8 C 11,2 C 78 % 1001,8 hPa 0,0 l/m 2 min 0 min 0,0 UV-I 98 W/m 5,1 km/h (1 Bft)
12.04.2013 19:32 11,8 C 10,7 C 78 % 1001,8 hPa 0,0 l/m 0 min 0 min 0,0 UV-I 63 W/m 12,9 km/h (3 Bft)
12.04.2013 19:34 11,8 C 10,7 C 78 % 1001,9 hPa 0,0 l/m 2 min 0 min 0,0 UV-I 69 W/m 10,3 km/h (2 Bft)
12.04.2013 19:36 11,9 C 10,7 C 78 % 1001,8 hPa 0,0 l/m 2 min 0 min 0,0 UV-I 69 W/m 12,9 km/h (3 Bft)
12.04.2013 19:38 11,9 C 10,7 C 78 % 1001,8 hPa 0,0 l/m 0 min 0 min 0,0 UV-I 49 W/m 12,9 km/h (3 Bft)
12.04.2013 19:40 11,9 C 10,7 C 78 % 1001,8 hPa 0,0 l/m 0 min 0 min 0,0 UV-I 51 W/m 7,7 km/h (2 Bft)
12.04.2013 19:42 11,9 C 10,7 C 78 % 1001,9 hPa 0,0 l/m 0 min 0 min 0,0 UV-I 49 W/m 10,3 km/h (2 Bft)
12.04.2013 19:44 11,9 C 10,7 C 79 % 1001,8 hPa 0,0 l/m 2 min 0 min 0,0 UV-I 60 W/m 7,7 km/h (2 Bft)
12.04.2013 19:46 11,9 C 10,7 C 79 % 1001,9 hPa 0,0 l/m 2 min 0 min 0,0 UV-I 53 W/m 20,6 km/h (4 Bft)
12.04.2013 19:48 11,9 C 10,1 C 79 % 1001,9 hPa 0,0 l/m 0 min 0 min 0,0 UV-I 40 W/m 15,4 km/h (3 Bft)
12.04.2013 19:50 11,8 C 10,1 C 79 % 1001,9 hPa 0,0 l/m 0 min 0 min 0,0 UV-I 37 W/m 12,9 km/h (3 Bft)
12.04.2013 19:52 11,8 C 10,1 C 79 % 1001,9 hPa 0,0 l/m 0 min 0 min 0,0 UV-I 35 W/m 12,9 km/h (3 Bft)
12.04.2013 19:54 11,8 C 10,1 C 79 % 1001,9 hPa 0,0 l/m 0 min 0 min 0,0 UV-I 35 W/m 5,1 km/h (1 Bft)
12.04.2013 19:56 11,8 C 10,1 C 79 % 1001,9 hPa 0,0 l/m 0 min 0 min 0,0 UV-I 35 W/m 10,3 km/h (2 Bft)
12.04.2013 19:58 11,8 C 10,1 C 79 % 1001,9 hPa 0,0 l/m 2 min 0 min 0,0 UV-I 35 W/m 10,3 km/h (2 Bft)
12.04.2013 20:00 11,7 C 10,1 C 80 % 1001,9 hPa 0,0 l/m 2 min 0 min 0,0 UV-I 33 W/m 18,0 km/h (3 Bft)
12.04.2013 20:02 11,7 C 10,1 C 80 % 1001,9 hPa 0,0 l/m 2 min 0 min 0,0 UV-I 32 W/m 10,3 km/h (2 Bft)
12.04.2013 20:04 11,7 C 10,1 C 80 % 1002,1 hPa 0,0 l/m 2 min 0 min 0,0 UV-I 28 W/m 18,0 km/h (3 Bft)
12.04.2013 20:06 11,6 C 10,1 C 81 % 1002,0 hPa 0,0 l/m 2 min 0 min 0,0 UV-I 25 W/m 12,9 km/h (3 Bft)
12.04.2013 20:08 11,6 C 9,6 C 81 % 1002,0 hPa 0,0 l/m 2 min 0 min 0,0 UV-I 21 W/m 7,7 km/h (2 Bft)
12.04.2013 20:10 11,5 C 9,6 C 81 % 1002,0 hPa 0,0 l/m 2 min 0 min 0,0 UV-I 19 W/m 7,7 km/h (2 Bft)
12.04.2013 20:12 11,5 C 9,6 C 81 % 1002,1 hPa 0,0 l/m 0 min 0 min 0,0 UV-I 18 W/m 18,0 km/h (3 Bft)
12.04.2013 20:14 11,4 C 9,6 C 81 % 1002,0 hPa 0,0 l/m 0 min 0 min 0,0 UV-I 16 W/m 7,7 km/h (2 Bft)
12.04.2013 20:16 11,4 C 9,6 C 81 % 1002,2 hPa 0,0 l/m 0 min 0 min 0,0 UV-I 14 W/m 12,9 km/h (3 Bft)
12.04.2013 20:18 11,3 C 9,6 C 82 % 1002,2 hPa 0,0 l/m 0 min 0 min 0,0 UV-I 12 W/m 5,1 km/h (1 Bft)
12.04.2013 20:20 11,3 C 9,6 C 82 % 1002,3 hPa 0,0 l/m 0 min 0 min 0,0 UV-I 9 W/m 7,7 km/h (2 Bft)
12.04.2013 20:22 11,3 C 9,6 C 82 % 1002,2 hPa 0,0 l/m 0 min 0 min 0,0 UV-I 9 W/m 5,1 km/h (1 Bft)
12.04.2013 20:24 11,2 C 9,0 C 82 % 1002,2 hPa 0,0 l/m 0 min 0 min 0,0 UV-I 7 W/m 12,9 km/h (3 Bft)
12.04.2013 20:26 11,2 C 9,6 C 82 % 1002,4 hPa 0,0 l/m 0 min 0 min 0,0 UV-I 5 W/m 12,9 km/h (3 Bft)
12.04.2013 20:28 11,1 C 9,0 C 83 % 1002,4 hPa 0,0 l/m 0 min 0 min 0,0 UV-I 0 W/m 15,4 km/h (3 Bft)
12.04.2013 20:30 11,1 C 9,0 C 83 % 1002,4 hPa 0,0 l/m 0 min 0 min 0,0 UV-I 0 W/m 10,3 km/h (2 Bft)
12.04.2013 20:32 11,0 C 9,0 C 83 % 1002,4 hPa 0,0 l/m 0 min 0 min 0,0 UV-I 0 W/m 10,3 km/h (2 Bft)
12.04.2013 20:34 11,0 C 9,0 C 83 % 1002,5 hPa 0,0 l/m 0 min 0 min 0,0 UV-I 0 W/m 7,7 km/h (2 Bft)
12.04.2013 20:36 10,9 C 9,0 C 83 % 1002,5 hPa 0,0 l/m 0 min 0 min 0,0 UV-I 0 W/m 5,1 km/h (1 Bft)
12.04.2013 20:38 10,9 C 9,0 C 83 % 1002,5 hPa 0,0 l/m 0 min 0 min 0,0 UV-I 0 W/m 10,3 km/h (2 Bft)
12.04.2013 20:40 10,9 C 9,0 C 83 % 1002,6 hPa 0,0 l/m 0 min 0 min 0,0 UV-I 0 W/m 0,0 km/h (0 Bft)
12.04.2013 20:42 10,8 C 9,0 C 84 % 1002,6 hPa 0,0 l/m 0 min 0 min 0,0 UV-I 0 W/m 2,6 km/h (1 Bft)
12.04.2013 20:44 10,8 C 9,0 C 84 % 1002,7 hPa 0,0 l/m 0 min 0 min 0,0 UV-I 0 W/m 15,4 km/h (3 Bft)
12.04.2013 20:46 10,8 C 9,0 C 84 % 1002,7 hPa 0,0 l/m 0 min 0 min 0,0 UV-I 0 W/m 20,6 km/h (4 Bft)
12.04.2013 20:48 10,8 C 9,0 C 84 % 1002,8 hPa 0,0 l/m 0 min 0 min 0,0 UV-I 0 W/m 7,7 km/h (2 Bft)
12.04.2013 20:50 10,7 C 9,0 C 85 % 1002,9 hPa 0,0 l/m 0 min 0 min 0,0 UV-I 0 W/m 12,9 km/h (3 Bft)
12.04.2013 20:52 10,7 C 9,0 C 85 % 1002,9 hPa 0,0 l/m 0 min 0 min 0,0 UV-I 0 W/m 12,9 km/h (3 Bft)
12.04.2013 20:54 10,7 C 9,0 C 85 % 1002,9 hPa 0,0 l/m 0 min 0 min 0,0 UV-I 0 W/m 7,7 km/h (2 Bft)
12.04.2013 20:56 10,7 C 9,0 C 85 % 1002,9 hPa 0,0 l/m 0 min 0 min 0,0 UV-I 0 W/m 18,0 km/h (3 Bft)
12.04.2013 20:58 10,7 C 9,0 C 85 % 1002,9 hPa 0,0 l/m 0 min 0 min 0,0 UV-I 0 W/m 7,7 km/h (2 Bft)
12.04.2013 21:00 10,6 C 9,0 C 85 % 1003,0 hPa 0,0 l/m 0 min 0 min 0,0 UV-I 0 W/m 7,7 km/h (2 Bft)
12.04.2013 21:02 10,6 C 9,0 C 85 % 1003,0 hPa 0,0 l/m 0 min 0 min 0,0 UV-I 0 W/m 5,1 km/h (1 Bft)
12.04.2013 21:06 10,6 C 9,0 C 86 % 1003,1 hPa 0,0 l/m 0 min 0 min 0,0 UV-I 0 W/m 18,0 km/h (3 Bft)
12.04.2013 21:08 10,6 C 9,0 C 86 % 1003,2 hPa 0,0 l/m 0 min 0 min 0,0 UV-I 0 W/m 10,3 km/h (2 Bft)
12.04.2013 21:10 10,6 C 9,0 C 86 % 1003,2 hPa 0,0 l/m 0 min 0 min 0,0 UV-I 0 W/m 2,6 km/h (1 Bft)
12.04.2013 21:12 10,6 C 9,0 C 86 % 1003,2 hPa 0,0 l/m 0 min 0 min 0,0 UV-I 0 W/m 7,7 km/h (2 Bft)
12.04.2013 21:14 10,6 C 9,0 C 86 % 1003,2 hPa 0,0 l/m 0 min 0 min 0,0 UV-I 0 W/m 5,1 km/h (1 Bft)
12.04.2013 21:16 10,6 C 9,0 C 86 % 1003,3 hPa 0,0 l/m 0 min 0 min 0,0 UV-I 0 W/m 5,1 km/h (1 Bft)
12.04.2013 21:18 10,5 C 9,0 C 86 % 1003,3 hPa 0,0 l/m 0 min 0 min 0,0 UV-I 0 W/m 12,9 km/h (3 Bft)
12.04.2013 21:20 10,5 C 9,0 C 86 % 1003,3 hPa 0,0 l/m 0 min 0 min 0,0 UV-I 0 W/m 7,7 km/h (2 Bft)
12.04.2013 21:22 10,5 C 9,0 C 86 % 1003,4 hPa 0,0 l/m 0 min 0 min 0,0 UV-I 0 W/m 7,7 km/h (2 Bft)
12.04.2013 21:24 10,4 C 9,0 C 86 % 1003,4 hPa 0,0 l/m 0 min 0 min 0,0 UV-I 0 W/m 7,7 km/h (2 Bft)
12.04.2013 21:26 10,4 C 9,0 C 86 % 1003,4 hPa 0,0 l/m 0 min 0 min 0,0 UV-I 0 W/m 5,1 km/h (1 Bft)
12.04.2013 21:28 10,4 C 8,4 C 86 % 1003,4 hPa 0,0 l/m 0 min 0 min 0,0 UV-I 0 W/m 2,6 km/h (1 Bft)
12.04.2013 21:30 10,4 C 8,4 C 86 % 1003,4 hPa 0,0 l/m 0 min 0 min 0,0 UV-I 0 W/m 10,3 km/h (2 Bft)
12.04.2013 21:32 10,4 C 8,4 C 86 % 1003,5 hPa 0,0 l/m 0 min 0 min 0,0 UV-I 0 W/m 18,0 km/h (3 Bft)
12.04.2013 21:34 10,4 C 8,4 C 86 % 1003,5 hPa 0,0 l/m 0 min 0 min 0,0 UV-I 0 W/m 7,7 km/h (2 Bft)
12.04.2013 21:36 10,3 C 8,4 C 86 % 1003,5 hPa 0,0 l/m 0 min 0 min 0,0 UV-I 0 W/m 5,1 km/h (1 Bft)
12.04.2013 21:38 10,3 C 8,4 C 86 % 1003,6 hPa 0,0 l/m 0 min 0 min 0,0 UV-I 0 W/m 12,9 km/h (3 Bft)
12.04.2013 21:40 10,3 C 8,4 C 86 % 1003,6 hPa 0,0 l/m 0 min 0 min 0,0 UV-I 0 W/m 18,0 km/h (3 Bft)
12.04.2013 21:42 10,3 C 8,4 C 86 % 1003,6 hPa 0,0 l/m 0 min 0 min 0,0 UV-I 0 W/m 10,3 km/h (2 Bft)
12.04.2013 21:44 10,3 C 8,4 C 86 % 1003,6 hPa 0,0 l/m 0 min 0 min 0,0 UV-I 0 W/m 0,0 km/h (0 Bft)
12.04.2013 21:46 10,3 C 8,4 C 86 % 1003,7 hPa 0,0 l/m 0 min 0 min 0,0 UV-I 0 W/m 12,9 km/h (3 Bft)
12.04.2013 21:48 10,3 C 8,4 C 86 % 1003,6 hPa 0,0 l/m 0 min 0 min 0,0 UV-I 0 W/m 7,7 km/h (2 Bft)
12.04.2013 21:50 10,3 C 8,4 C 86 % 1003,7 hPa 0,0 l/m 0 min 0 min 0,0 UV-I 0 W/m 2,6 km/h (1 Bft)
12.04.2013 21:52 10,3 C 9,0 C 86 % 1003,8 hPa 0,0 l/m 0 min 0 min 0,0 UV-I 0 W/m 5,1 km/h (1 Bft)
12.04.2013 21:54 10,3 C 9,0 C 86 % 1003,8 hPa 0,0 l/m 0 min 0 min 0,0 UV-I 0 W/m 7,7 km/h (2 Bft)
12.04.2013 21:56 10,3 C 9,0 C 86 % 1003,9 hPa 0,0 l/m 0 min 0 min 0,0 UV-I 0 W/m 10,3 km/h (2 Bft)
12.04.2013 21:58 10,3 C 9,0 C 86 % 1003,9 hPa 0,0 l/m 0 min 0 min 0,0 UV-I 0 W/m 12,9 km/h (3 Bft)
12.04.2013 22:00 10,3 C 9,0 C 86 % 1003,9 hPa 0,0 l/m 0 min 0 min 0,0 UV-I 0 W/m 12,9 km/h (3 Bft)
12.04.2013 22:02 10,3 C 9,0 C 85 % 1004,0 hPa 0,0 l/m 0 min 0 min 0,0 UV-I 0 W/m 10,3 km/h (2 Bft)
12.04.2013 22:04 10,3 C 9,0 C 85 % 1004,0 hPa 0,0 l/m 0 min 0 min 0,0 UV-I 0 W/m 7,7 km/h (2 Bft)
12.04.2013 22:06 10,3 C 9,0 C 85 % 1004,0 hPa 0,0 l/m 0 min 0 min 0,0 UV-I 0 W/m 5,1 km/h (1 Bft)
12.04.2013 22:08 10,3 C 9,0 C 85 % 1003,9 hPa 0,0 l/m 0 min 0 min 0,0 UV-I 0 W/m 15,4 km/h (3 Bft)
12.04.2013 22:10 10,3 C 8,4 C 85 % 1004,0 hPa 0,0 l/m 0 min 0 min 0,0 UV-I 0 W/m 0,0 km/h (0 Bft)
12.04.2013 22:12 10,3 C 8,4 C 85 % 1004,0 hPa 0,0 l/m 0 min 0 min 0,0 UV-I 0 W/m 15,4 km/h (3 Bft)
12.04.2013 22:14 10,3 C 9,0 C 85 % 1004,0 hPa 0,0 l/m 0 min 0 min 0,0 UV-I 0 W/m 12,9 km/h (3 Bft)
12.04.2013 22:16 10,3 C 9,0 C 85 % 1004,1 hPa 0,0 l/m 0 min 0 min 0,0 UV-I 0 W/m 10,3 km/h (2 Bft)
12.04.2013 22:18 10,3 C 9,0 C 85 % 1004,1 hPa 0,0 l/m 0 min 0 min 0,0 UV-I 0 W/m 2,6 km/h (1 Bft)
12.04.2013 22:20 10,3 C 9,0 C 85 % 1004,0 hPa 0,0 l/m 0 min 0 min 0,0 UV-I 0 W/m 2,6 km/h (1 Bft)
12.04.2013 22:22 10,2 C 9,0 C 85 % 1004,1 hPa 0,0 l/m 0 min 0 min 0,0 UV-I 0 W/m 7,7 km/h (2 Bft)
12.04.2013 22:24 10,3 C 9,0 C 85 % 1004,2 hPa 0,0 l/m 0 min 0 min 0,0 UV-I 0 W/m 5,1 km/h (1 Bft)
12.04.2013 22:26 10,3 C 9,0 C 85 % 1004,1 hPa 0,0 l/m 0 min 0 min 0,0 UV-I 0 W/m 7,7 km/h (2 Bft)
12.04.2013 22:28 10,3 C 9,0 C 85 % 1004,2 hPa 0,0 l/m 0 min 0 min 0,0 UV-I 0 W/m 5,1 km/h (1 Bft)
12.04.2013 22:30 10,3 C 9,0 C 85 % 1004,2 hPa 0,0 l/m 0 min 0 min 0,0 UV-I 0 W/m 5,1 km/h (1 Bft)
12.04.2013 22:32 10,3 C 9,0 C 85 % 1004,3 hPa 0,0 l/m 0 min 0 min 0,0 UV-I 0 W/m 7,7 km/h (2 Bft)
12.04.2013 22:34 10,3 C 9,0 C 85 % 1004,3 hPa 0,0 l/m 0 min 0 min 0,0 UV-I 0 W/m 7,7 km/h (2 Bft)
12.04.2013 22:36 10,3 C 9,0 C 85 % 1004,3 hPa 0,0 l/m 0 min 0 min 0,0 UV-I 0 W/m 12,9 km/h (3 Bft)
12.04.2013 22:38 10,3 C 9,0 C 85 % 1004,3 hPa 0,0 l/m 0 min 0 min 0,0 UV-I 0 W/m 12,9 km/h (3 Bft)
12.04.2013 22:40 10,3 C 9,0 C 85 % 1004,3 hPa 0,0 l/m 0 min 0 min 0,0 UV-I 0 W/m 10,3 km/h (2 Bft)
12.04.2013 22:42 10,3 C 9,0 C 85 % 1004,3 hPa 0,0 l/m 0 min 0 min 0,0 UV-I 0 W/m 5,1 km/h (1 Bft)
12.04.2013 22:44 10,3 C 9,0 C 85 % 1004,2 hPa 0,0 l/m 0 min 0 min 0,0 UV-I 0 W/m 0,0 km/h (0 Bft)
12.04.2013 22:46 10,3 C 9,0 C 85 % 1004,2 hPa 0,0 l/m 0 min 0 min 0,0 UV-I 0 W/m 5,1 km/h (1 Bft)
12.04.2013 22:48 10,3 C 9,0 C 85 % 1004,4 hPa 0,0 l/m 0 min 0 min 0,0 UV-I 0 W/m 10,3 km/h (2 Bft)
12.04.2013 22:50 10,3 C 9,0 C 85 % 1004,5 hPa 0,0 l/m 0 min 0 min 0,0 UV-I 0 W/m 10,3 km/h (2 Bft)
12.04.2013 22:52 10,3 C 8,4 C 85 % 1004,5 hPa 0,0 l/m 0 min 0 min 0,0 UV-I 0 W/m 5,1 km/h (1 Bft)
12.04.2013 22:54 10,2 C 8,4 C 85 % 1004,6 hPa 0,0 l/m 0 min 0 min 0,0 UV-I 0 W/m 12,9 km/h (3 Bft)
12.04.2013 22:56 10,2 C 8,4 C 85 % 1004,4 hPa 0,0 l/m 0 min 0 min 0,0 UV-I 0 W/m 12,9 km/h (3 Bft)
12.04.2013 22:58 10,2 C 8,4 C 85 % 1004,5 hPa 0,0 l/m 0 min 0 min 0,0 UV-I 0 W/m 7,7 km/h (2 Bft)
12.04.2013 23:00 10,2 C 8,4 C 85 % 1004,5 hPa 0,0 l/m 0 min 0 min 0,0 UV-I 0 W/m 7,7 km/h (2 Bft)
12.04.2013 23:02 10,2 C 8,4 C 85 % 1004,5 hPa 0,0 l/m 0 min 0 min 0,0 UV-I 0 W/m 7,7 km/h (2 Bft)
12.04.2013 23:04 10,2 C 8,4 C 85 % 1004,6 hPa 0,0 l/m 0 min 0 min 0,0 UV-I 0 W/m 10,3 km/h (2 Bft)
12.04.2013 23:06 10,2 C 8,4 C 85 % 1004,6 hPa 0,0 l/m 0 min 0 min 0,0 UV-I 0 W/m 12,9 km/h (3 Bft)
12.04.2013 23:08 10,2 C 8,4 C 85 % 1004,6 hPa 0,0 l/m 0 min 0 min 0,0 UV-I 0 W/m 10,3 km/h (2 Bft)
12.04.2013 23:10 10,2 C 8,4 C 85 % 1004,7 hPa 0,0 l/m 0 min 0 min 0,0 UV-I 0 W/m 12,9 km/h (3 Bft)
12.04.2013 23:12 10,1 C 8,4 C 85 % 1004,6 hPa 0,0 l/m 0 min 0 min 0,0 UV-I 0 W/m 7,7 km/h (2 Bft)
12.04.2013 23:14 10,1 C 8,4 C 85 % 1004,6 hPa 0,0 l/m 0 min 0 min 0,0 UV-I 0 W/m 7,7 km/h (2 Bft)
12.04.2013 23:16 10,1 C 8,4 C 85 % 1004,6 hPa 0,0 l/m 0 min 0 min 0,0 UV-I 0 W/m 10,3 km/h (2 Bft)
12.04.2013 23:18 10,1 C 8,4 C 85 % 1004,6 hPa 0,0 l/m 0 min 0 min 0,0 UV-I 0 W/m 10,3 km/h (2 Bft)
12.04.2013 23:20 10,1 C 8,4 C 85 % 1004,5 hPa 0,0 l/m 0 min 0 min 0,0 UV-I 0 W/m 0,0 km/h (0 Bft)
12.04.2013 23:22 10,1 C 8,4 C 85 % 1004,5 hPa 0,0 l/m 0 min 0 min 0,0 UV-I 0 W/m 7,7 km/h (2 Bft)
12.04.2013 23:24 10,0 C 8,4 C 85 % 1004,6 hPa 0,0 l/m 0 min 0 min 0,0 UV-I 0 W/m 12,9 km/h (3 Bft)
12.04.2013 23:26 10,0 C 8,4 C 85 % 1004,6 hPa 0,0 l/m 0 min 0 min 0,0 UV-I 0 W/m 5,1 km/h (1 Bft)
12.04.2013 23:28 10,0 C 8,4 C 85 % 1004,6 hPa 0,0 l/m 0 min 0 min 0,0 UV-I 0 W/m 10,3 km/h (2 Bft)
12.04.2013 23:30 9,9 C 8,4 C 85 % 1004,6 hPa 0,0 l/m 0 min 0 min 0,0 UV-I 0 W/m 10,3 km/h (2 Bft)
12.04.2013 23:32 9,9 C 8,4 C 85 % 1004,6 hPa 0,0 l/m 0 min 0 min 0,0 UV-I 0 W/m 10,3 km/h (2 Bft)
12.04.2013 23:34 9,9 C 8,4 C 85 % 1004,5 hPa 0,0 l/m 0 min 0 min 0,0 UV-I 0 W/m 18,0 km/h (3 Bft)
12.04.2013 23:36 9,8 C 8,4 C 85 % 1004,6 hPa 0,0 l/m 0 min 0 min 0,0 UV-I 0 W/m 12,9 km/h (3 Bft)
12.04.2013 23:38 9,8 C 8,4 C 85 % 1004,5 hPa 0,0 l/m 0 min 0 min 0,0 UV-I 0 W/m 20,6 km/h (4 Bft)
12.04.2013 23:40 9,8 C 8,4 C 85 % 1004,6 hPa 0,0 l/m 0 min 0 min 0,0 UV-I 0 W/m 18,0 km/h (3 Bft)
12.04.2013 23:42 9,8 C 8,4 C 85 % 1004,7 hPa 0,0 l/m 0 min 0 min 0,0 UV-I 0 W/m 23,2 km/h (4 Bft)
12.04.2013 23:44 9,8 C 8,4 C 85 % 1004,7 hPa 0,0 l/m 0 min 0 min 0,0 UV-I 0 W/m 23,2 km/h (4 Bft)
12.04.2013 23:46 9,8 C 8,4 C 85 % 1004,7 hPa 0,0 l/m 0 min 0 min 0,0 UV-I 0 W/m 15,4 km/h (3 Bft)
12.04.2013 23:48 9,8 C 8,4 C 85 % 1004,8 hPa 0,0 l/m 0 min 0 min 0,0 UV-I 0 W/m 20,6 km/h (4 Bft)
12.04.2013 23:50 9,8 C 8,4 C 84 % 1004,9 hPa 0,0 l/m 0 min 0 min 0,0 UV-I 0 W/m 5,1 km/h (1 Bft)
12.04.2013 23:52 9,8 C 8,4 C 84 % 1004,9 hPa 0,0 l/m 0 min 0 min 0,0 UV-I 0 W/m 18,0 km/h (3 Bft)
12.04.2013 23:54 9,8 C 8,4 C 84 % 1004,8 hPa 0,0 l/m 0 min 0 min 0,0 UV-I 0 W/m 18,0 km/h (3 Bft)
12.04.2013 23:56 9,7 C 8,4 C 84 % 1004,8 hPa 0,0 l/m 0 min 0 min 0,0 UV-I 0 W/m 15,4 km/h (3 Bft)
12.04.2013 23:58 9,7 C 7,9 C 84 % 1004,9 hPa 0,0 l/m 0 min 0 min 0,0 UV-I 0 W/m 10,3 km/h (2 Bft)
_ Min-Zeit 05:18 03:18 16:12 00:00 - - - - - 00:00
Minimum _ 7,4 C 6,2 C 66 % 998,7 hPa - - - - - 0,0 km/h (0 Bft)
_ Max-Zeit 16:10 16:06 02:30 23:50 08:06 09:54 07:54 12:16 15:52 15:10
Maximum _ 15,4 C 15,7 C 96 % 1004,9 hPa 0,2 l/m 2 min 2 min 2,4 UV-I 795 W/m 38,6 km/h
S-SO (5 Bft)
Durchschnitt _ 10,6 C 9,5 C 84 % 1001,1 hPa #0,4 l/m #2:16 h #1:24 h 1,1 UV-I 183 W/m 10,6 km/h (2 Bft)
© 2013 W. Hausmann